GFSMA_sfc_rhum_084.txt.gz
RH
89 88 86 88 86 89 94 97 96 91 84 79 67 64 59 52 60 66 79 86 83 76 68 66 68 64 68 70 69 68 66 62 65 70 72 71 72 68 73 73 72 70 68
90 82 83 84 86 90 94 96 96 93 93 84 79 65 56 54 57 65 77 85 84 81 74 67 65 63 63 69 69 68 69 69 66 66 70 70 73 74 75 72 70 70 68
86 82 83 85 87 90 94 94 96 96 96 89 71 62 56 53 54 64 68 76 83 83 79 73 73 67 64 70 68 68 65 66 66 66 70 71 72 72 73 72 70 70 68
83 85 90 91 92 96 96 95 95 96 96 91 63 60 53 57 57 55 64 66 72 66 80 81 79 76 76 70 62 67 66 69 69 66 70 71 72 72 71 71 71 70 69
79 89 86 90 94 96 96 95 97 97 97 92 59 62 58 60 60 47 60 61 65 65 71 84 83 83 80 73 67 64 65 66 68 67 71 72 71 71 72 72 72 71 69
85 91 92 95 94 96 97 98 98 98 94 80 48 55 63 60 60 64 56 56 64 68 70 76 87 82 82 80 73 64 64 66 68 68 69 70 70 70 71 72 71 71 70
91 93 95 95 93 93 95 95 98 97 97 75 76 74 74 72 64 63 65 62 60 62 66 70 73 71 79 83 80 69 64 64 67 68 68 70 71 73 72 72 71 71 70
90 92 96 94 93 96 96 95 96 97 96 79 68 75 89 79 74 67 68 59 59 58 56 61 63 63 68 77 84 79 71 67 65 67 70 75 77 78 74 73 72 72 72
88 91 95 95 96 96 97 95 96 94 92 88 61 67 86 89 86 81 79 77 72 71 62 62 59 57 63 68 75 82 85 82 77 73 74 77 79 80 80 79 77 76 74
87 91 95 94 94 94 96 95 95 94 94 79 79 57 63 67 81 95 84 76 77 64 71 64 63 63 61 67 72 78 87 87 86 82 80 79 80 81 81 82 82 82 81
89 92 94 96 96 96 95 94 97 94 95 84 71 77 68 72 64 80 91 84 79 72 70 73 72 70 62 66 72 76 85 88 87 84 83 83 84 83 83 83 84 84 84
92 95 96 96 94 94 96 95 95 94 94 89 80 74 73 77 73 78 80 79 75 73 66 72 75 76 70 67 66 72 84 88 87 84 82 81 82 84 85 86 86 85 85
98 98 99 99 97 96 94 92 95 96 94 92 73 74 77 74 67 70 77 80 82 74 81 72 77 71 71 82 74 72 82 86 88 87 86 85 84 82 81 82 84 86 86
95 94 98 98 99 96 95 95 92 94 92 91 81 83 80 77 75 74 82 86 86 77 78 80 68 73 72 70 74 81 73 85 88 88 88 88 88 87 87 86 84 83 82
91 94 96 98 98 98 96 95 93 94 90 87 88 84 82 81 84 83 79 84 85 91 79 67 85 69 72 73 75 80 83 84 88 88 89 90 89 88 89 89 88 87 86
91 94 96 96 97 98 99 98 98 96 95 95 95 90 90 87 88 90 85 84 83 85 83 71 69 68 75 58 71 72 76 81 86 87 89 90 90 90 90 90 89 89 89
86 91 93 95 96 97 97 98 98 98 97 96 93 92 93 92 94 94 90 87 84 80 88 73 62 62 67 75 64 69 74 74 73 87 89 90 91 90 90 90 91 91 90
86 89 92 94 94 95 96 96 94 92 93 96 95 96 94 91 95 93 93 89 83 74 77 76 75 76 75 69 72 76 65 54 56 63 86 85 87 88 90 90 91 91 92
88 90 90 92 93 95 95 95 92 94 92 86 86 89 88 92 89 88 89 81 82 81 84 86 76 64 65 68 69 68 68 68 60 67 74 80 85 85 90 94 95 95 95
87 88 89 88 90 86 86 89 92 94 93 89 88 89 88 86 85 85 79 83 81 81 83 85 83 81 76 68 68 71 75 71 71 57 62 77 92 93 91 90 92 93 94
85 82 83 83 82 81 83 87 84 94 97 94 93 91 93 95 96 97 88 93 92 89 87 86 85 81 80 84 91 90 93 94 91 92 90 94 92 88 92 92 91 92 92
89 88 88 88 88 82 94 94 89 89 85 86 90 91 81 90 88 92 99 98 95 95 97 98 95 98 97 96 91 92 95 98 99 94 90 97 92 97 96 98 98 95 95
89 89 89 87 90 90 95 96 90 82 85 87 89 87 80 79 86 83 96 94 94 94 96 95 96 97 94 96 96 94 94 96 97 97 97 97 97 98 98 96 90 88 88
90 89 87 85 88 87 95 93 90 86 87 85 86 86 86 87 90 94 93 93 95 94 95 90 96 98 97 94 94 93 98 98 100 94 95 100 99 99 97 97 88 86 85
90 90 87 86 88 90 92 93 84 84 86 87 84 85 84 87 89 90 90 94 95 98 90 85 84 84 84 83 86 88 96 98 100 98 96 99 99 99 98 98 97 82 84
80 82 81 82 84 86 89 85 79 81 86 87 86 86 85 84 84 85 88 89 94 98 94 93 93 92 88 86 82 92 95 96 98 98 96 99 98 99 99 98 92 90 97

GFSMA_sfc_rhum_087.txt.gz
RH
95 98 97 98 97 96 94 97 96 97 94 88 80 83 80 73 76 78 84 88 84 76 70 70 69 67 69 67 66 64 66 70 69 72 74 74 70 72 74 74 74 72 71
97 94 96 95 98 96 95 95 96 97 95 93 90 83 74 72 75 81 86 86 86 81 74 67 62 66 68 69 73 66 66 67 67 73 73 72 73 75 76 75 74 72 70
94 97 97 95 96 97 97 98 98 98 97 92 95 85 66 71 75 82 86 86 85 85 82 77 73 70 66 69 68 68 66 69 68 72 72 73 75 76 75 74 73 72 70
90 91 95 97 98 98 98 98 97 97 96 96 97 93 60 65 70 80 83 84 88 83 83 82 78 76 72 68 63 68 67 67 66 69 72 74 75 75 75 74 73 73 71
94 95 94 97 97 97 98 97 97 93 95 97 96 90 60 67 68 70 79 82 85 86 87 84 83 81 79 75 67 66 66 67 70 69 72 74 74 75 74 74 74 73 72
92 96 97 98 99 98 98 98 97 97 97 97 89 77 58 63 65 74 76 72 76 76 82 86 87 86 84 78 71 67 66 68 69 67 72 74 74 74 74 74 74 73 72
95 98 98 97 97 98 96 96 97 97 98 97 95 85 75 66 66 72 71 69 72 72 83 84 86 89 85 84 78 69 64 66 68 69 71 73 74 75 74 74 74 73 72
97 98 97 96 97 96 97 96 96 99 98 97 88 69 87 79 76 76 68 65 72 68 77 79 81 82 84 87 89 76 71 67 68 69 71 76 78 76 74 74 74 74 73
97 96 96 96 96 94 96 97 95 93 96 97 85 68 82 82 81 86 80 73 71 71 72 73 75 72 77 83 86 84 85 82 76 73 75 78 79 79 78 76 76 74 74
95 96 96 96 94 94 96 96 94 95 95 93 88 60 67 76 74 91 88 78 83 70 77 74 73 69 70 75 80 84 88 87 84 83 77 79 80 81 82 82 82 82 80
96 96 97 96 96 96 95 95 97 96 94 92 82 76 72 74 76 89 94 90 90 84 78 75 73 72 66 69 78 80 87 88 87 84 83 83 82 82 83 84 84 85 84
98 98 97 96 95 96 96 96 94 93 96 92 90 80 73 80 76 83 94 94 73 88 81 81 82 80 76 75 73 78 88 89 89 87 85 84 85 85 86 85 85 85 86
98 97 98 98 98 95 95 95 96 94 96 94 92 88 83 75 75 79 84 88 89 89 88 84 81 83 75 80 77 80 86 86 90 88 86 85 84 84 85 87 87 87 87
91 94 98 98 97 95 98 96 97 95 94 97 94 91 88 85 84 83 83 85 86 94 92 86 80 73 72 79 82 83 75 89 89 89 89 88 87 87 86 85 84 83 84
93 97 98 99 98 98 97 96 96 95 95 95 97 95 90 92 92 89 86 87 90 94 82 79 84 82 80 82 84 85 86 87 88 88 89 89 88 88 89 88 88 87 85
91 97 98 98 99 99 98 96 95 96 94 96 97 97 95 93 92 92 91 91 92 93 88 77 74 71 88 84 86 84 74 84 90 88 90 90 90 89 89 90 90 90 89
94 96 96 97 98 99 99 98 96 93 96 97 98 97 95 92 96 96 94 91 90 91 94 82 76 74 72 74 71 81 83 82 77 90 90 90 91 91 92 92 91 91 91
95 96 96 95 96 98 99 99 98 95 95 97 98 97 96 96 94 95 96 96 96 92 91 88 72 72 77 79 78 78 70 62 73 78 87 89 90 94 97 97 96 95 95
94 96 97 97 96 96 97 98 97 97 96 96 97 97 98 98 97 95 94 93 89 90 89 85 79 76 77 76 71 77 72 67 62 73 81 96 95 94 93 93 94 93 94
91 89 89 91 89 87 91 96 96 97 98 96 94 96 94 94 91 92 89 87 85 84 89 89 85 79 83 76 78 77 77 82 84 77 92 88 91 91 91 92 93 92 93
83 82 85 88 88 85 86 90 95 98 97 97 97 92 93 94 98 97 89 93 92 89 89 89 91 86 85 90 97 96 97 96 98 94 95 94 94 93 94 93 92 92 92
90 88 90 89 90 87 96 97 92 88 88 90 94 92 89 90 96 96 94 96 94 93 97 98 98 99 97 94 91 92 94 97 98 92 88 97 92 97 96 94 89 89 89
90 91 92 92 97 95 95 93 90 85 88 90 90 89 86 87 93 88 92 91 93 93 96 94 93 97 94 96 96 94 96 96 99 93 94 99 96 98 97 94 86 84 85
90 91 90 91 94 93 93 92 90 86 88 87 88 88 91 93 96 91 89 93 94 94 96 93 96 97 96 93 93 91 97 96 97 92 97 99 97 99 97 97 80 80 81
92 92 89 89 92 95 92 90 84 86 88 89 86 88 88 91 93 88 89 93 94 98 86 84 84 82 79 79 86 95 98 98 99 98 96 99 99 99 99 99 99 80 82
92 92 94 95 92 95 94 91 82 83 89 89 87 87 88 88 85 84 86 86 91 96 95 93 91 90 89 85 80 94 98 96 100 99 95 98 97 98 98 99 98 96 97

GFSMA_sfc_rhum_090.txt.gz
RH
95 93 94 91 94 93 92 99 96 96 97 97 95 90 88 85 88 92 95 91 88 81 77 74 74 73 72 77 79 78 74 72 72 70 72 74 75 76 76 75 76 74 73
99 98 99 94 91 88 93 96 96 96 97 96 96 88 81 82 86 90 89 90 88 85 80 75 72 73 70 68 73 75 71 70 72 72 74 76 72 78 80 78 75 74 72
98 97 98 99 94 90 95 95 98 98 99 97 97 93 89 81 86 88 89 89 88 88 83 77 72 70 69 70 73 69 71 73 75 72 75 72 73 77 78 77 76 74 73
96 97 96 96 98 96 94 94 96 98 99 98 97 96 92 86 84 87 88 88 93 86 86 82 78 79 77 72 69 71 63 67 72 72 74 74 75 77 77 76 75 74 74
95 97 98 97 97 95 95 95 98 95 97 99 97 97 88 82 85 82 89 89 93 94 93 87 85 83 83 75 65 70 71 70 68 68 70 74 76 77 77 76 75 75 74
96 97 98 98 96 97 97 97 97 98 96 96 92 96 88 76 79 87 88 84 90 90 91 90 84 83 85 80 76 71 70 69 66 67 70 73 74 76 77 76 75 75 74
95 95 98 98 97 98 96 96 98 96 98 97 97 99 91 80 78 84 87 86 85 83 92 90 90 92 82 82 75 70 70 67 67 68 69 70 72 78 77 76 76 75 74
97 96 96 98 97 97 96 96 96 96 98 98 98 94 97 92 83 81 84 82 85 81 87 88 89 91 92 90 88 76 71 67 66 67 70 77 79 77 77 76 76 76 75
97 97 96 95 96 95 95 96 96 94 96 99 94 93 93 88 84 88 90 80 86 86 83 85 86 84 90 94 90 83 84 82 75 72 74 78 80 79 77 76 76 76 76
99 98 95 95 95 96 96 94 96 94 92 96 97 92 84 84 81 98 91 85 78 80 86 87 86 84 83 86 88 88 88 86 84 82 78 79 80 80 81 81 81 80 78
99 98 96 95 96 95 95 94 96 96 94 92 88 91 84 84 84 77 89 92 91 76 77 85 84 82 76 78 83 85 90 90 88 86 83 82 81 82 83 84 84 84 84
98 99 98 98 96 95 95 95 95 95 95 92 91 86 80 80 78 84 89 86 79 87 85 83 86 82 78 78 76 82 89 90 90 87 85 84 84 85 85 85 85 86 86
98 99 98 99 98 96 96 95 96 96 96 95 94 91 84 78 59 78 87 92 78 88 91 85 79 83 77 82 79 84 88 90 90 89 87 86 85 85 86 88 88 88 88
96 98 99 98 98 97 97 96 96 96 97 94 93 94 92 89 81 80 85 92 94 94 94 85 88 84 85 80 80 88 80 90 91 90 90 88 88 88 88 87 86 86 87
92 95 98 98 98 98 98 98 98 98 97 96 96 96 90 95 90 88 86 88 91 96 91 87 90 87 83 81 86 88 84 89 90 90 91 91 89 89 88 88 88 88 86
94 95 96 98 98 98 98 98 98 97 96 97 96 98 98 98 94 93 85 87 86 87 86 85 82 80 91 87 92 89 88 89 92 90 90 90 90 90 90 92 91 91 90
95 95 94 98 99 99 99 99 99 98 95 97 98 97 98 97 97 96 94 92 92 90 90 89 85 80 76 74 81 88 86 89 82 92 94 94 96 96 96 97 95 95 95
94 95 97 97 98 99 99 99 98 98 96 98 98 98 99 98 98 97 96 95 93 89 91 90 85 91 89 80 79 81 79 74 81 84 94 96 96 97 97 96 95 94 94
98 97 97 97 97 98 99 99 98 97 98 93 95 96 98 98 99 98 96 96 97 96 96 97 88 86 86 86 84 80 79 77 70 96 93 94 93 94 94 93 93 94 93
91 91 91 92 92 92 97 99 98 99 98 97 97 97 97 97 97 97 96 94 95 97 96 96 90 87 88 86 82 82 89 94 95 80 92 93 93 93 93 92 93 93 94
86 86 89 90 89 88 88 98 99 99 98 98 96 93 96 97 99 99 97 98 96 97 95 92 94 92 93 96 98 95 97 95 97 92 96 94 93 94 94 90 89 88 88
92 91 93 94 96 92 98 98 96 94 93 94 96 94 94 94 95 96 96 97 95 96 99 99 98 99 97 94 91 93 94 98 100 94 94 97 93 98 96 95 87 86 86
93 95 95 94 96 95 95 93 92 90 93 94 93 92 92 90 90 88 92 92 93 93 95 90 94 97 93 95 95 93 97 98 98 94 96 98 97 98 98 92 82 81 81
94 95 96 94 94 93 93 92 91 88 90 90 91 93 95 97 93 91 90 93 95 94 94 92 95 97 96 93 93 91 95 97 95 92 95 99 98 98 96 96 82 78 79
94 95 94 94 94 95 90 90 86 88 92 94 92 92 94 95 92 88 88 92 96 98 85 82 81 77 73 80 88 94 99 98 99 97 93 98 99 99 100 99 98 78 77
93 91 94 97 97 97 92 91 85 88 92 92 92 94 93 94 91 85 86 88 95 98 93 91 91 93 89 80 76 95 98 98 98 98 94 99 98 99 98 99 99 98 97

GFSMA_sfc_rhum_093.txt.gz
RH
93 95 92 93 95 94 98 99 99 97 97 98 98 97 97 97 98 99 97 92 91 85 79 78 78 78 79 81 82 81 78 74 74 72 74 76 77 77 76 75 78 76 76
94 91 92 93 85 86 95 99 98 98 98 96 99 98 96 96 98 98 99 96 92 90 84 78 76 74 75 77 83 81 78 74 73 69 72 76 78 68 79 79 77 75 73
93 91 92 91 87 88 92 99 98 99 98 95 97 98 96 96 98 98 96 98 94 89 88 85 80 76 73 71 78 78 76 76 74 74 70 73 69 77 79 79 77 74 73
98 98 95 97 93 94 95 97 98 98 97 97 98 98 97 96 97 98 96 93 97 92 90 88 84 82 77 74 72 70 73 75 76 74 73 74 72 72 78 79 77 75 74
97 98 97 95 95 95 94 96 97 94 98 99 98 97 97 98 95 93 93 95 96 95 94 88 84 84 82 79 73 68 69 69 68 75 75 74 72 75 78 78 77 76 75
97 96 96 95 95 94 96 96 97 97 97 97 93 97 98 96 97 97 92 89 95 94 94 93 91 81 85 81 75 70 68 69 70 72 74 72 71 77 78 78 76 76 76
98 98 95 97 92 94 93 95 98 97 99 98 98 99 98 97 96 97 91 89 93 91 95 96 97 96 86 83 76 71 71 72 72 64 71 70 71 72 78 78 77 76 76
98 97 96 96 94 96 96 97 96 97 98 97 98 96 99 99 99 97 94 89 93 89 92 94 95 93 93 84 76 76 73 74 72 67 64 69 73 71 77 78 77 76 76
98 96 97 96 96 96 98 97 96 93 95 98 96 95 99 98 97 96 95 93 93 91 89 90 93 91 93 96 91 84 84 83 76 67 72 76 79 79 78 78 77 77 77
98 97 97 97 97 97 97 96 95 94 94 97 98 95 93 92 93 99 97 92 90 87 90 91 92 91 92 95 93 92 89 87 84 80 76 77 80 80 80 79 78 77 77
98 96 96 97 97 96 95 96 98 97 96 94 93 97 98 94 97 95 97 98 94 85 87 90 88 89 87 89 94 91 91 90 88 86 84 81 80 82 83 83 83 82 81
98 97 94 97 96 96 97 96 96 95 95 93 94 91 88 90 94 97 96 93 88 94 84 88 92 88 87 86 83 87 92 92 90 88 86 85 86 85 84 85 85 84 85
96 97 98 98 97 97 96 96 96 96 95 96 92 92 85 85 87 90 94 92 91 94 95 91 85 86 83 86 84 86 90 93 92 90 89 88 88 87 88 88 88 87 87
89 92 95 94 98 97 98 97 97 96 96 96 95 95 92 92 88 86 86 96 97 94 95 91 90 88 85 86 85 89 83 92 92 92 91 90 90 89 89 88 88 90 89
95 92 98 99 99 99 98 98 98 98 98 97 95 95 90 91 90 87 80 83 88 95 84 92 94 91 84 90 89 92 88 93 92 93 92 92 91 90 91 91 90 89 89
97 97 99 99 99 99 99 99 98 97 97 97 97 95 96 96 96 90 86 81 87 89 94 86 91 89 95 89 93 90 86 89 90 92 93 93 93 93 93 94 94 94 94
96 97 96 96 94 98 96 98 98 97 98 98 96 95 94 96 98 97 96 93 93 90 92 96 88 88 85 80 88 92 90 88 90 96 96 96 95 96 98 98 98 97 96
98 97 96 98 99 99 99 99 99 99 98 98 98 96 95 94 97 96 95 97 96 92 92 90 90 90 88 84 78 78 78 80 87 96 96 97 96 95 94 94 94 94 94
98 98 98 98 98 99 99 99 99 99 99 97 97 97 98 94 97 98 97 97 95 96 94 93 90 88 87 88 89 88 84 86 80 92 94 94 94 93 93 94 94 94 94
95 94 93 94 94 96 99 99 99 99 99 99 97 96 98 96 96 97 97 97 98 98 98 98 97 96 95 93 93 91 90 94 91 83 91 92 92 91 92 91 90 90 89
90 90 91 92 92 91 91 97 99 99 98 98 98 97 98 99 100 98 96 97 97 97 98 98 98 98 98 99 98 96 98 97 97 96 95 94 93 93 94 90 88 87 86
94 94 95 94 96 90 97 99 99 97 95 96 97 97 96 97 98 98 98 99 98 98 99 98 97 99 97 95 92 94 96 99 99 94 96 97 94 98 97 96 90 86 82
95 96 95 94 97 95 95 96 96 94 95 96 97 97 94 93 95 93 95 94 95 93 97 94 96 98 96 96 94 95 97 98 98 94 98 98 97 98 97 91 81 80 77
96 96 95 94 95 93 94 94 93 92 94 96 97 97 96 96 94 93 93 95 95 94 93 92 96 98 97 95 96 95 96 96 96 92 96 99 98 99 96 96 82 78 78
96 97 94 94 95 97 93 92 90 92 95 97 96 95 94 95 91 88 90 94 96 97 84 80 79 78 82 88 92 91 98 99 98 96 92 98 99 99 100 99 99 79 78
94 92 95 96 97 97 93 92 89 90 94 94 93 95 95 96 91 87 88 89 94 98 95 92 90 84 81 78 77 94 99 97 97 96 92 98 98 99 99 99 99 98 98

GFSMA_sfc_rhum_096.txt.gz
RH
96 95 97 96 99 99 97 95 93 95 97 96 96 95 97 97 97 98 98 98 92 83 82 80 80 80 83 84 85 83 82 80 79 76 77 77 73 74 77 70 69 74 68
95 94 94 96 93 94 94 94 93 94 96 95 96 97 98 98 97 98 96 97 94 91 85 81 78 75 79 80 85 83 80 78 77 74 71 78 78 72 68 68 72 77 69
93 92 94 95 94 93 98 99 99 99 99 98 98 98 98 99 98 98 97 95 93 93 94 88 82 79 79 78 81 82 80 81 78 74 74 74 71 69 73 70 76 71 73
91 94 95 96 95 95 95 97 96 95 97 98 98 99 99 99 99 98 98 96 96 90 92 91 87 83 82 76 77 77 76 76 75 76 73 70 72 75 77 70 75 76 74
94 95 94 94 96 97 96 96 97 94 95 97 97 98 98 99 99 97 97 98 96 94 91 92 89 88 83 79 74 71 70 72 74 72 75 74 72 74 74 72 78 76 75
94 97 96 96 96 97 98 98 96 96 96 95 95 98 98 98 98 99 97 96 95 92 90 88 88 85 88 84 78 69 67 70 68 72 74 74 72 74 78 78 78 76 75
95 96 97 96 96 96 96 95 96 97 99 97 98 99 98 98 98 99 98 98 95 92 91 89 89 86 82 87 80 73 70 71 71 71 75 75 73 78 71 79 78 77 76
95 96 97 97 95 96 96 96 96 99 97 96 98 97 99 99 99 98 98 98 95 92 91 91 91 89 87 82 81 79 74 73 71 71 74 75 75 70 72 78 79 77 76
96 95 94 95 96 94 96 96 97 98 98 98 94 95 99 98 98 99 99 98 97 92 89 91 91 88 88 88 84 79 84 84 79 74 72 68 69 71 72 76 78 77 76
98 96 93 95 90 95 98 96 96 96 95 97 98 94 91 93 96 99 99 99 98 93 93 92 92 89 88 89 90 90 88 87 88 80 75 73 76 78 79 78 79 78 77
98 98 97 93 94 95 95 97 98 97 96 94 93 97 95 95 95 95 98 99 98 96 92 91 90 89 89 89 90 89 90 89 89 86 82 78 78 80 82 84 83 82 80
98 98 97 97 94 95 96 97 96 96 96 95 94 93 88 91 96 96 96 95 95 98 90 88 92 91 90 88 86 90 93 91 90 88 88 86 85 82 82 84 85 82 83
98 98 97 97 96 94 94 96 97 97 97 97 94 94 89 87 87 85 91 94 97 98 96 89 88 89 88 89 86 90 93 94 92 90 90 89 88 88 89 88 87 86 86
96 96 96 94 91 97 97 95 97 96 96 97 97 95 93 88 88 84 92 93 99 98 96 93 86 88 86 87 86 91 84 94 94 93 91 91 90 90 90 90 92 93 91
89 92 93 94 96 96 96 98 98 98 97 96 97 95 92 91 90 92 93 88 87 97 96 93 95 90 84 86 86 86 85 93 93 94 94 93 92 92 92 92 92 92 91
90 89 93 95 98 98 98 98 98 97 98 97 97 96 94 94 92 94 94 91 93 91 93 86 90 92 90 88 91 89 87 92 95 94 94 95 94 94 95 95 94 94 93
95 95 94 98 99 99 99 99 99 99 98 98 98 98 95 92 95 95 95 92 92 92 92 98 90 87 94 90 90 88 88 90 93 98 97 96 96 96 97 98 97 96 94
98 97 96 96 95 97 97 99 98 98 98 98 96 97 96 94 94 95 95 94 94 94 94 96 96 92 89 87 90 91 87 82 86 95 96 95 95 94 95 95 95 95 95
99 98 98 97 97 99 99 99 99 99 98 98 96 97 95 93 96 96 94 94 94 96 97 96 98 96 94 93 89 89 87 88 84 91 93 94 94 94 94 94 94 93 92
98 98 96 96 96 96 97 98 99 99 99 99 99 96 95 94 94 96 94 94 96 97 97 96 97 97 96 96 95 95 98 87 90 84 91 91 91 90 90 91 91 90 90
93 92 93 93 92 90 90 97 98 99 99 98 98 97 99 98 99 97 94 97 96 97 97 98 99 99 99 99 98 98 98 98 98 95 95 94 93 94 94 90 88 86 84
94 94 95 94 95 90 97 99 100 98 97 97 98 98 97 98 98 99 99 99 100 95 97 97 96 98 99 98 98 98 98 98 99 95 95 98 94 98 97 95 86 80 75
95 96 95 94 97 95 96 96 96 95 97 98 98 97 96 95 97 96 97 96 97 96 98 98 99 99 98 97 96 98 97 96 98 96 94 98 97 98 98 97 88 80 75
96 96 96 94 95 93 94 95 95 94 96 98 97 96 96 98 97 96 95 96 96 96 96 94 97 99 98 98 97 96 95 97 97 96 98 97 99 98 98 97 85 77 77
96 97 95 95 96 97 93 93 92 93 95 97 96 95 94 97 97 92 92 94 94 95 83 85 86 86 87 90 92 93 97 96 98 96 95 97 99 98 96 96 95 80 69
96 94 96 96 95 96 93 90 88 90 95 94 95 96 98 97 94 88 89 89 94 97 93 91 86 84 84 86 87 97 97 96 94 91 86 92 95 96 96 95 92 92 82

GFSMA_sfc_rhum_102.txt.gz
RH
71 58 56 57 63 56 61 61 63 64 64 66 63 64 63 60 55 53 56 92 95 86 87 85 83 84 84 88 90 90 87 85 82 80 81 83 82 80 80 80 80 80 75
68 73 74 72 53 60 68 64 70 64 68 69 72 71 66 62 58 63 72 64 96 94 92 84 83 82 82 85 90 90 87 84 82 79 80 82 81 80 79 79 78 77 74
73 73 73 71 70 63 73 76 79 74 74 70 70 75 68 69 65 65 74 85 72 99 96 92 85 84 84 84 87 88 86 85 83 81 80 78 76 77 79 79 78 74 74
75 80 75 75 78 79 81 85 86 89 87 76 73 74 67 73 78 73 83 94 76 94 98 100 89 85 86 85 84 84 82 86 85 82 80 79 79 79 79 77 77 77 71
76 80 76 74 81 86 83 87 91 87 87 75 67 70 73 86 84 79 93 88 90 96 95 98 96 96 90 86 85 82 80 81 78 77 77 77 77 79 79 78 77 69 68
82 82 78 82 84 86 84 87 88 87 85 81 84 91 90 80 77 85 90 95 93 98 88 78 76 73 93 88 85 82 77 75 74 74 74 74 75 78 79 77 71 76 75
83 82 82 86 85 85 83 86 87 92 90 87 94 97 96 88 84 92 88 95 98 96 92 72 72 56 67 90 87 83 74 72 71 73 74 76 79 80 80 75 74 76 75
82 82 86 88 87 86 86 86 81 92 90 90 95 96 99 98 89 88 89 94 96 98 88 77 63 58 63 61 67 84 76 73 69 72 77 80 79 76 75 76 76 77 77
82 84 86 88 88 86 87 82 86 90 96 96 83 81 98 95 97 93 92 89 97 98 96 95 90 61 57 59 67 76 84 80 76 76 79 82 79 78 75 77 77 77 77
88 87 91 90 91 90 90 86 85 84 87 96 95 80 66 73 86 98 98 94 91 94 94 97 95 83 61 49 63 72 86 86 84 78 78 81 78 77 76 76 77 78 78
90 87 91 92 94 92 91 88 85 80 86 91 94 91 84 76 70 74 97 98 97 93 88 90 90 84 74 57 46 62 84 88 88 84 82 82 78 75 76 75 78 78 79
92 90 88 88 90 92 91 92 87 79 82 88 90 90 84 79 72 80 81 92 95 97 93 92 91 84 81 67 53 74 85 88 89 89 87 83 79 77 76 77 79 80 80
93 92 84 85 88 89 88 89 88 83 83 90 92 94 89 82 73 75 87 88 94 95 97 96 94 88 81 74 60 74 87 89 89 88 88 88 84 82 80 78 79 81 82
76 78 81 73 72 79 86 89 89 81 79 89 89 91 92 89 76 92 83 89 94 92 95 95 96 95 94 89 79 87 66 92 90 90 90 90 90 89 90 88 86 86 85
61 67 73 84 92 92 88 90 87 80 87 93 92 90 91 88 89 89 91 94 83 97 96 94 92 92 90 89 85 74 62 93 93 92 92 91 91 90 90 91 90 91 92
70 75 80 86 94 93 90 91 84 86 93 94 92 93 91 86 88 88 88 88 89 86 89 85 88 92 90 84 82 73 65 88 95 95 94 94 93 93 93 93 93 93 93
82 87 86 96 95 95 92 92 90 81 84 92 91 94 91 89 93 92 88 80 81 79 94 96 87 93 94 92 82 74 64 64 75 97 97 97 97 97 96 96 95 94 93
89 86 88 94 95 90 88 87 86 87 91 97 96 96 94 92 93 91 90 88 91 86 87 94 96 97 92 88 82 77 60 69 74 97 99 98 98 98 98 98 97 96 95
80 78 79 87 88 83 82 92 92 96 94 94 94 96 93 95 95 94 92 94 93 92 90 90 94 92 89 88 80 86 82 81 81 94 96 97 97 96 96 96 95 95 94
85 79 79 86 88 91 90 92 93 93 93 85 79 83 79 89 95 96 96 94 95 94 92 92 92 94 92 90 92 95 95 85 85 82 91 92 94 95 95 95 94 92 92
94 91 93 92 90 86 85 94 95 93 95 96 97 92 96 98 99 98 95 95 95 95 94 93 94 93 94 98 96 93 95 96 95 92 95 94 94 94 94 91 91 90 89
95 92 93 90 92 89 98 99 97 94 92 93 96 93 93 97 98 100 100 100 96 94 94 93 91 92 94 93 91 94 96 96 98 93 96 99 95 98 95 92 87 84 81
96 97 95 94 96 95 98 97 97 90 93 94 94 92 89 90 97 97 98 98 98 99 99 90 93 94 97 97 98 98 95 94 97 98 91 98 99 98 99 95 85 79 75
100 100 98 95 93 92 96 96 95 92 94 94 94 94 95 96 96 96 97 99 100 99 100 99 100 100 100 100 98 96 96 98 98 98 98 98 98 98 98 100 92 84 82
97 98 98 96 95 95 94 93 90 91 94 96 94 94 93 96 94 91 95 97 96 98 96 96 97 97 98 98 98 96 98 95 98 98 98 97 98 98 97 98 99 85 78
97 95 96 95 95 95 93 91 88 90 95 93 92 94 95 95 93 91 93 93 97 99 96 95 95 95 95 96 95 98 100 99 97 98 97 97 97 96 97 96 97 94 84

GFSMA_sfc_rhum_105.txt.gz
RH
55 48 47 44 54 57 57 54 68 64 64 64 66 62 60 66 57 66 66 92 93 94 79 80 85 81 83 91 91 90 90 89 87 84 88 88 88 87 86 86 84 77 69
66 51 48 45 44 51 65 56 56 67 69 67 71 66 65 65 64 62 49 62 93 94 83 84 87 84 84 88 91 90 90 89 87 84 85 84 84 84 85 83 81 77 72
70 59 61 67 50 47 68 74 70 66 66 64 71 68 62 67 70 64 68 55 68 97 95 82 94 90 86 87 90 89 89 89 86 85 84 82 83 82 83 82 79 75 76
67 66 55 73 65 53 64 72 67 74 70 71 70 68 72 72 71 69 73 71 64 65 94 95 97 97 87 87 86 85 86 87 85 84 82 81 81 81 81 76 78 72 77
61 68 59 72 67 61 73 78 70 73 75 66 67 68 74 73 74 64 69 71 77 74 83 96 99 96 95 88 86 83 83 82 83 83 82 80 80 81 78 74 66 74 75
67 72 67 75 75 78 82 85 87 79 80 72 62 78 73 70 70 82 78 78 78 78 85 87 96 99 99 88 86 85 81 78 78 79 77 80 81 81 78 71 65 66 67
72 75 71 75 74 79 74 86 86 85 90 82 91 93 86 77 82 76 78 78 85 94 93 95 94 96 94 94 89 86 77 78 77 77 78 80 81 79 78 75 66 68 68
76 80 77 73 76 81 75 85 84 89 89 88 92 91 97 96 91 76 75 80 87 97 96 95 95 92 73 82 79 85 80 79 76 77 81 81 79 77 78 74 66 68 74
70 81 80 77 82 81 84 88 82 85 87 93 84 80 96 95 94 87 81 83 87 92 94 99 99 92 75 74 74 83 88 85 79 79 82 82 80 76 77 77 69 68 77
71 80 81 80 85 82 86 83 79 82 76 90 91 73 64 61 70 96 91 84 88 89 95 97 98 98 94 78 79 80 90 89 86 81 83 82 80 76 73 75 75 69 79
74 76 82 84 89 87 88 86 84 80 74 82 87 91 74 72 66 68 90 92 93 89 88 93 96 96 96 87 78 79 88 89 88 87 84 84 82 78 76 76 76 73 78
82 84 87 87 86 86 91 92 91 81 75 75 78 82 79 80 76 71 74 81 86 94 92 92 90 92 94 93 83 81 88 88 90 88 87 86 82 78 77 76 75 76 78
88 91 91 92 85 85 78 73 82 86 81 79 80 81 81 73 69 64 76 79 93 94 98 94 93 84 74 77 76 85 88 88 90 90 89 90 86 82 78 76 77 77 79
76 87 91 91 87 82 74 82 84 84 83 85 83 79 80 77 71 72 75 80 92 98 98 97 96 91 87 80 70 84 73 88 90 91 90 91 89 86 84 84 82 83 83
70 89 91 90 91 88 86 87 89 87 85 84 81 84 87 84 82 84 84 88 88 97 97 98 96 92 87 88 90 88 79 90 90 90 90 90 90 90 90 88 88 88 88
72 74 84 89 84 79 77 81 90 84 87 82 80 80 79 84 84 85 84 92 96 94 96 83 83 90 89 85 90 89 84 92 92 91 91 91 91 91 91 91 92 92 92
67 70 76 82 82 81 85 84 79 90 86 83 83 83 88 84 86 90 91 86 90 93 96 91 79 81 93 92 90 90 85 84 90 95 94 94 95 95 96 95 96 95 94
75 70 77 73 74 81 83 92 92 91 88 82 80 91 89 81 86 83 89 94 93 90 91 94 84 92 92 91 90 94 89 81 81 97 98 98 98 98 98 99 98 98 98
90 89 77 74 75 81 86 91 91 89 88 79 76 83 90 87 95 94 92 93 91 94 93 94 96 90 91 92 97 98 96 93 90 97 98 99 99 98 98 98 97 97 96
94 92 84 80 80 80 79 80 87 92 87 85 89 90 88 92 92 91 94 95 92 94 95 95 94 96 95 94 94 96 97 92 93 87 94 95 95 96 96 96 96 95 94
92 94 92 92 91 88 88 88 90 95 95 93 95 88 95 96 97 99 96 94 96 97 96 97 96 95 96 98 97 95 96 97 98 95 96 96 95 95 95 93 92 93 92
94 92 95 95 93 88 99 100 97 95 96 97 98 94 91 95 96 99 100 100 100 97 97 94 94 94 95 96 95 96 97 97 99 96 97 99 94 98 96 94 93 94 93
94 98 97 94 96 96 98 99 97 92 95 95 94 94 88 88 94 94 97 98 98 98 100 92 93 92 93 95 94 97 96 95 98 98 94 99 98 98 98 93 89 89 87
100 99 96 97 96 93 97 96 94 92 94 95 95 95 96 94 94 93 95 99 100 99 99 99 100 100 100 100 91 91 94 99 99 100 98 98 99 99 99 100 92 91 92
96 97 97 96 98 97 99 95 90 91 93 95 93 93 93 93 93 91 94 98 97 98 98 98 98 98 98 99 98 96 99 96 100 99 100 97 98 98 99 99 99 91 91
97 95 95 96 96 97 99 94 88 90 95 93 92 93 93 95 92 90 91 93 96 99 97 96 96 95 96 96 96 100 99 99 97 99 98 97 97 97 98 99 98 97 94

GFSMA_sfc_rhum_108.txt.gz
RH
77 72 68 69 76 74 80 76 76 77 78 78 80 77 82 81 77 89 97 94 93 90 82 75 79 86 92 87 92 92 91 91 91 90 90 90 90 88 88 86 85 82 75
72 68 70 65 71 71 73 71 71 82 83 80 83 81 81 83 82 82 96 94 93 91 90 81 80 87 88 90 90 92 91 91 90 90 90 90 90 90 89 87 85 79 74
85 79 77 71 64 68 72 76 80 90 86 80 81 85 85 84 86 83 87 93 88 94 94 87 86 89 90 88 90 91 91 91 90 89 90 90 89 89 89 86 82 77 74
78 82 74 74 81 76 76 79 79 89 90 89 86 87 86 88 87 85 85 87 79 84 98 99 82 90 93 93 94 89 90 91 89 88 87 86 86 86 86 85 80 75 68
80 81 77 73 78 78 85 80 82 83 91 92 84 82 82 91 91 84 85 88 88 84 93 99 98 94 95 92 94 87 86 87 88 87 85 84 84 84 84 82 75 68 78
79 80 77 78 78 76 77 86 85 88 90 89 76 84 90 92 90 88 85 87 88 90 91 96 98 98 97 92 93 90 81 82 82 82 84 82 83 83 81 74 68 71 78
78 75 76 76 81 79 77 87 93 90 96 94 94 94 96 92 90 95 95 94 93 92 94 96 98 97 96 94 92 93 82 80 79 79 83 82 83 82 77 70 72 67 66
76 79 81 82 81 81 82 88 90 94 93 90 93 97 99 97 96 95 91 90 94 95 97 96 96 97 96 94 95 95 85 82 81 82 84 83 83 81 76 74 74 71 73
69 77 81 86 89 92 96 89 90 91 92 94 86 94 99 97 98 97 92 95 94 98 98 99 97 96 97 96 97 96 95 92 83 83 85 85 84 78 77 75 70 76 78
67 74 81 84 88 88 95 94 91 88 84 94 93 82 86 88 96 99 97 94 94 96 98 99 99 96 93 96 95 94 97 94 90 84 85 85 82 75 74 69 71 77 77
66 72 81 86 89 89 85 87 91 85 87 86 90 92 86 90 89 92 98 98 97 96 95 98 98 99 99 99 96 92 94 93 91 89 86 85 81 78 72 73 76 76 74
68 70 81 86 86 91 91 88 86 89 91 88 86 88 88 87 90 94 94 96 93 98 97 96 97 96 98 99 98 100 97 94 92 90 90 87 83 80 74 67 69 71 72
78 74 81 93 92 91 90 87 90 93 91 92 89 87 84 80 84 82 91 95 97 98 99 97 96 96 95 98 97 100 99 97 93 91 92 91 87 83 79 73 72 75 74
75 79 87 90 92 91 89 90 86 94 92 94 90 90 88 83 84 89 90 94 99 100 100 99 96 96 96 92 92 99 94 98 95 93 93 92 91 89 85 80 78 76 76
75 80 90 92 92 90 90 92 93 90 82 90 90 88 91 88 84 93 92 93 93 99 98 99 99 94 91 92 91 91 82 95 97 94 93 92 92 90 88 86 85 84 85
76 81 89 90 93 91 93 88 84 83 89 93 91 90 88 90 91 89 94 95 93 94 98 93 94 97 95 92 90 84 76 92 92 93 94 94 92 92 90 89 89 89 90
74 78 87 90 91 95 94 92 89 89 92 94 92 86 91 91 93 90 95 96 97 96 96 96 96 95 97 96 93 89 90 84 87 93 92 93 93 93 93 92 93 94 94
92 77 80 86 90 90 89 92 93 91 91 92 90 92 95 94 93 93 94 94 95 94 94 95 96 98 97 94 93 94 91 89 93 98 94 94 95 95 95 96 96 96 97
93 92 81 88 92 89 91 88 88 88 88 88 94 95 96 95 96 96 95 96 95 95 96 95 96 93 96 96 97 95 98 97 94 98 99 99 98 98 98 99 99 99 99
91 91 94 94 95 91 87 84 84 87 88 90 90 88 91 94 93 94 96 94 94 96 97 98 96 96 94 96 96 97 99 97 98 92 97 98 98 98 99 98 98 98 97
91 90 92 93 95 94 93 97 93 91 86 90 98 98 98 97 99 99 98 97 95 97 98 98 98 98 98 99 98 96 97 98 98 98 98 98 98 98 98 97 96 96 96
96 92 95 94 96 91 97 100 99 97 96 97 99 99 97 97 98 99 99 100 100 99 96 96 94 96 96 96 96 96 97 97 99 98 97 98 96 98 98 98 95 95 94
93 97 96 94 97 96 97 98 99 97 97 98 98 96 93 92 96 97 98 98 99 98 99 97 96 94 93 94 94 98 95 92 98 99 92 98 99 98 99 96 94 92 92
95 96 96 97 95 95 98 98 97 95 96 96 96 96 96 96 97 97 98 99 99 98 99 100 100 100 100 96 91 90 93 100 99 100 98 99 99 99 99 99 89 89 91
94 94 94 93 95 96 98 99 95 94 95 96 93 94 95 96 94 92 97 98 99 99 97 96 96 97 98 100 96 96 98 97 100 100 100 97 99 98 99 99 99 93 96
97 95 95 96 95 96 96 96 96 94 94 93 92 93 93 95 92 90 94 95 98 99 97 95 95 94 96 98 98 100 98 100 98 99 99 97 97 98 99 99 98 98 98

GFSMA_sfc_rhum_111.txt.gz
RH
88 88 82 88 90 93 94 93 94 93 92 91 90 92 92 93 90 97 97 94 95 84 80 74 75 80 83 90 93 95 92 91 92 92 92 91 90 90 89 88 87 86 84
82 84 87 85 88 87 90 87 87 90 91 88 90 90 90 91 89 93 97 97 96 92 86 82 79 79 83 87 92 96 92 91 91 91 91 91 91 90 90 88 86 83 79
88 78 84 83 83 81 86 86 89 93 91 90 88 91 91 90 91 92 97 97 94 92 93 90 86 84 84 85 90 95 92 91 91 91 91 92 91 91 90 88 85 81 77
93 95 96 93 85 79 81 85 84 94 89 92 96 96 94 93 93 92 96 96 92 87 96 96 93 89 88 89 89 93 95 91 91 91 91 91 92 91 90 88 85 81 77
83 87 94 95 89 93 87 81 91 84 91 95 94 97 97 96 95 94 93 95 92 93 96 100 96 94 93 90 88 92 91 88 90 90 90 90 91 90 89 87 84 81 78
89 91 85 84 94 91 95 96 88 93 86 91 87 94 96 96 95 97 95 94 90 93 94 98 99 97 96 94 94 87 91 91 86 86 88 88 88 88 87 86 82 78 69
89 88 83 85 86 86 80 90 93 92 98 95 97 98 98 94 94 96 93 95 94 93 96 99 99 99 98 96 95 89 80 92 83 85 87 86 85 86 85 83 78 71 78
79 87 89 88 87 91 90 89 92 98 98 94 97 97 99 97 97 97 96 97 96 97 98 97 99 94 95 97 96 91 90 92 85 86 87 85 85 85 83 79 78 78 77
69 73 84 88 90 93 89 96 98 96 99 99 94 97 99 96 98 98 99 96 97 98 99 98 99 97 93 96 95 94 93 96 95 87 87 86 86 86 83 78 80 80 77
74 74 75 78 88 93 94 96 95 92 92 93 99 91 91 93 96 99 98 99 96 97 97 99 97 98 97 98 94 95 99 98 96 88 87 87 86 86 82 80 80 78 78
76 75 78 79 79 95 94 94 93 89 86 91 89 89 91 97 93 97 98 100 98 95 97 96 93 94 97 98 98 99 100 100 100 97 89 88 86 85 82 80 79 76 79
84 82 78 84 80 79 92 93 89 89 92 86 85 83 79 87 89 97 97 98 97 99 98 97 94 96 99 96 97 100 100 100 100 98 94 90 88 84 81 79 77 77 78
89 88 84 87 89 80 81 91 92 92 93 93 93 91 88 84 87 86 94 99 98 99 99 97 95 98 97 98 99 100 100 100 100 99 96 93 90 85 81 77 76 77 77
86 84 87 85 91 95 90 90 91 92 95 93 93 91 91 87 86 91 86 96 100 99 99 97 97 98 96 96 96 100 99 100 99 99 97 95 93 90 87 82 78 78 78
86 89 89 85 82 87 87 88 82 94 91 91 91 95 93 92 91 92 92 93 93 98 98 98 99 94 94 96 96 98 97 100 100 99 98 97 95 92 90 87 82 81 81
90 93 91 88 85 79 80 83 87 94 94 94 89 96 96 94 92 93 95 97 92 95 96 92 95 97 94 94 95 94 95 98 100 100 100 99 97 94 91 90 87 85 84
89 91 93 90 84 82 79 87 93 92 93 92 94 91 86 86 96 96 95 96 96 93 92 98 98 98 97 96 96 95 92 91 93 100 100 99 98 97 95 94 90 88 89
88 89 92 96 85 76 75 94 94 90 89 94 90 87 84 94 97 97 96 97 97 96 94 94 98 99 95 91 94 96 94 90 88 96 98 98 98 96 96 94 92 91 92
87 86 89 92 94 87 84 92 91 91 90 91 94 94 96 98 98 98 97 96 97 96 95 97 98 98 96 96 98 98 99 98 96 98 97 97 96 96 96 97 95 95 96
88 87 88 90 92 94 97 95 96 96 96 95 96 94 90 91 89 95 96 96 96 98 97 97 96 98 96 98 96 98 99 99 99 94 98 99 99 99 98 99 99 98 98
86 86 88 88 91 93 89 95 96 96 96 98 99 98 99 99 100 99 98 97 96 96 98 98 97 98 98 99 98 98 99 99 99 98 98 99 99 99 99 99 99 99 99
87 87 90 90 92 89 96 96 98 98 97 99 99 98 98 98 99 99 99 99 100 97 98 98 98 98 96 94 98 98 98 99 99 98 98 99 98 99 99 99 99 98 97
89 90 90 91 93 95 96 96 98 96 98 98 99 98 96 96 99 98 99 99 99 98 99 100 98 95 94 93 96 98 98 96 98 99 93 99 99 99 99 98 96 96 96
96 96 94 93 93 94 97 98 99 95 94 96 98 97 97 98 99 98 98 99 99 99 99 98 100 100 100 97 93 92 94 100 99 100 98 98 100 99 100 100 94 94 94
95 96 97 94 93 95 95 94 93 96 94 94 93 95 96 97 98 96 98 99 99 99 93 92 93 95 97 100 99 97 99 97 100 100 100 98 99 98 99 99 99 94 96
97 95 95 96 94 96 97 94 95 94 93 93 94 92 95 97 94 92 96 97 98 100 98 96 96 94 94 97 98 100 97 98 99 99 99 98 97 98 99 99 99 99 98

GFSMA_sfc_rhum_114.txt.gz
RH
98 98 96 98 96 97 97 98 98 98 98 98 97 96 97 97 96 98 98 91 91 84 77 77 79 80 84 85 82 80 90 91 85 93 94 93 92 90 90 89 88 87 87
90 90 93 94 95 94 97 96 97 97 97 97 97 97 96 96 95 96 98 97 95 94 84 78 78 79 81 84 82 85 88 93 93 92 93 92 91 91 91 90 89 88 86
92 84 85 89 90 91 96 96 96 96 97 96 96 96 95 95 95 96 96 97 96 94 92 89 86 84 83 86 86 86 84 92 92 92 92 92 91 91 91 90 89 87 85
92 96 94 89 90 91 94 95 95 97 97 97 97 98 97 96 95 96 96 96 96 90 94 91 90 88 87 88 88 86 89 94 96 92 92 92 92 91 91 90 88 84 81
94 96 96 96 96 95 95 93 94 93 97 97 97 98 97 96 96 96 96 96 95 94 95 98 92 94 93 89 88 86 86 88 95 92 92 92 92 91 91 89 86 83 81
82 96 93 92 97 98 97 95 91 92 91 90 92 96 97 96 97 97 96 95 95 93 94 96 98 97 96 92 86 88 85 85 89 92 89 90 91 91 91 89 86 84 80
82 77 88 95 95 96 87 96 96 97 98 96 99 99 99 97 98 98 97 97 96 94 92 96 98 98 99 96 91 86 85 86 89 89 89 88 89 91 90 88 86 83 81
82 80 86 87 92 95 96 97 93 92 95 98 95 96 99 99 97 97 97 97 96 95 94 96 98 98 99 96 94 90 87 84 85 90 91 85 89 90 90 87 85 82 77
78 83 84 86 87 91 94 94 96 91 84 99 98 99 100 98 99 96 99 98 97 97 96 97 99 94 94 96 97 97 96 91 85 87 90 87 89 89 88 86 84 79 81
80 83 86 87 88 89 91 93 97 96 95 94 99 98 96 98 98 99 98 98 98 98 97 98 98 96 92 93 94 96 98 98 97 96 89 88 88 87 86 85 81 81 81
80 84 87 89 89 86 86 91 98 98 92 94 93 95 91 95 96 96 98 99 98 94 97 95 97 97 93 90 94 96 98 98 99 95 96 89 88 87 85 84 82 82 80
80 80 81 90 90 89 89 90 96 94 94 90 87 81 84 89 88 96 98 96 89 94 94 98 96 97 94 92 95 99 100 100 99 98 97 95 90 87 86 84 83 82 80
88 88 87 89 91 90 88 88 97 96 94 93 89 85 81 72 80 84 95 98 98 98 98 93 96 95 93 93 91 100 100 100 100 99 98 98 94 89 88 85 84 81 79
85 85 88 88 90 90 89 88 92 96 95 95 94 92 83 80 83 88 86 97 100 99 100 97 96 96 95 92 93 100 98 100 100 100 100 100 98 94 91 87 84 82 79
79 84 88 90 90 92 91 88 94 95 95 92 91 88 86 88 92 90 88 88 87 98 97 97 99 94 94 91 98 98 98 100 100 100 100 100 100 97 92 90 86 84 82
87 88 88 88 90 91 93 90 89 89 91 90 90 89 88 88 94 94 93 93 92 94 96 95 91 96 95 92 94 96 96 100 100 100 100 100 100 98 96 91 88 87 87
86 87 86 89 90 92 94 92 86 88 92 92 95 94 89 87 94 96 96 95 92 92 91 98 97 98 96 94 93 97 94 97 98 100 100 100 100 100 98 94 91 89 88
84 85 85 86 87 88 91 94 90 84 94 95 93 94 89 91 88 94 97 96 96 93 94 98 98 99 94 93 92 98 96 94 96 100 100 100 100 100 100 96 94 92 90
83 83 84 86 87 88 88 93 95 93 93 92 90 93 88 88 92 95 97 97 96 94 92 94 99 97 97 94 99 99 98 99 99 98 100 100 100 100 100 99 98 96 92
83 83 84 85 88 87 87 90 91 97 95 91 90 91 91 86 87 93 93 91 90 93 95 94 98 98 97 97 97 99 100 99 99 94 99 100 99 99 100 100 98 96 93
82 83 85 85 89 88 89 94 94 97 98 93 99 99 98 98 100 96 90 90 93 95 98 97 98 97 98 99 98 99 99 99 99 99 99 99 99 99 99 100 97 97 98
86 86 87 88 90 86 96 94 93 94 96 96 99 99 99 99 100 100 100 100 98 97 97 96 95 97 97 96 97 98 99 99 99 99 99 99 99 100 99 100 100 100 100
90 91 93 94 91 91 93 96 94 93 93 95 97 97 97 97 99 98 99 99 99 99 100 96 95 94 94 94 98 99 98 99 99 100 96 99 99 100 100 99 99 99 99
97 96 96 96 96 97 97 92 94 97 95 96 97 96 96 97 98 99 99 99 100 100 100 99 100 100 100 99 98 95 96 100 99 100 98 99 100 99 100 100 98 98 98
94 96 96 96 96 97 98 97 92 94 95 97 97 95 95 96 99 98 99 100 99 99 95 94 94 95 96 98 99 99 99 98 100 100 100 99 99 99 99 99 100 96 96
90 89 90 90 89 96 97 97 96 96 95 95 95 96 96 96 93 94 96 98 97 100 99 97 97 95 95 97 97 100 99 99 100 100 100 98 98 98 99 99 99 99 99

GFSMA_sfc_rhum_117.txt.gz
RH
93 87 87 88 93 99 98 99 97 98 99 99 98 98 98 98 98 99 99 94 95 91 84 77 79 80 82 85 84 84 82 83 90 92 85 94 94 93 93 92 91 91 89
98 98 91 90 92 99 98 98 96 95 96 98 98 98 97 98 97 97 98 96 93 93 90 84 80 78 80 83 85 86 82 83 90 93 89 94 94 94 93 92 91 91 90
97 96 97 98 98 98 98 98 99 99 98 97 97 98 98 97 97 97 97 98 95 92 90 90 84 82 80 82 84 85 86 84 88 94 94 94 94 94 92 91 90 90 89
91 98 96 95 94 98 98 98 98 98 96 95 93 98 98 97 97 97 96 97 97 92 95 92 89 88 85 84 85 85 84 84 87 92 94 94 93 94 92 92 91 90 89
88 92 93 97 96 97 98 97 98 97 97 95 94 95 98 98 96 95 96 95 96 92 94 92 90 90 90 86 87 86 83 82 84 87 92 93 93 94 92 92 90 89 88
87 93 94 95 98 99 96 95 95 96 94 96 96 96 98 98 96 96 95 94 94 94 94 94 95 96 94 93 90 89 84 80 82 87 90 96 92 93 92 91 90 87 85
86 83 86 90 91 96 97 98 95 90 94 98 100 100 99 99 99 98 97 97 96 94 95 94 96 97 98 98 94 88 78 78 81 83 86 94 92 93 91 90 88 86 84
85 83 91 90 92 93 89 98 98 97 98 98 89 97 98 97 100 99 99 99 98 97 95 95 93 96 97 98 97 92 85 82 85 84 88 92 92 92 91 90 88 86 84
81 86 89 93 95 95 94 93 97 97 96 99 99 94 98 99 96 99 98 97 99 98 97 96 96 96 97 98 97 97 96 90 86 87 87 90 90 91 90 89 87 86 84
82 85 88 92 95 94 95 94 93 97 97 98 98 98 95 96 97 99 99 100 99 99 98 98 97 98 97 97 96 98 99 98 93 90 91 91 89 89 90 89 88 86 84
78 81 84 83 85 89 92 95 92 89 96 94 96 100 98 99 97 96 97 97 98 94 95 97 97 97 94 93 95 93 98 100 100 95 89 85 88 88 87 89 88 86 83
82 84 83 87 89 91 92 92 92 94 92 97 93 90 91 93 97 97 92 81 81 86 94 95 98 98 98 96 93 96 100 100 99 97 97 92 85 86 89 89 87 86 83
86 86 86 89 89 90 90 92 94 93 90 96 95 92 85 80 85 84 86 84 90 96 98 95 94 97 97 97 95 96 97 100 99 98 97 96 94 92 92 91 88 84 83
84 84 86 87 88 88 90 92 96 93 90 96 94 93 89 85 84 82 83 85 96 99 100 96 93 95 96 97 95 97 92 100 100 100 99 97 98 99 96 95 90 84 84
79 83 85 87 86 88 90 92 96 95 88 93 94 94 93 90 88 85 84 81 81 94 97 98 98 91 91 96 96 94 94 99 100 100 100 99 99 99 98 98 93 88 86
84 85 85 86 87 86 88 91 94 94 92 92 94 92 93 91 90 87 88 87 84 80 86 87 95 96 91 95 94 95 93 99 100 100 100 100 100 99 100 99 96 92 89
84 84 83 85 84 85 86 90 93 94 94 90 93 94 93 87 89 92 93 90 91 91 89 96 97 98 97 96 94 97 92 96 99 100 100 100 100 100 100 100 97 94 92
82 82 82 83 84 85 86 88 91 93 91 93 91 94 89 87 86 88 93 92 91 91 93 95 98 99 97 95 95 98 95 96 96 100 100 100 100 100 100 100 99 97 96
82 81 82 84 86 87 86 88 88 90 94 92 89 92 88 92 92 92 92 92 94 94 92 91 98 97 96 94 97 98 98 97 97 99 100 100 100 100 100 100 100 99 98
81 81 82 82 86 84 85 88 89 92 94 94 96 96 92 92 91 90 93 94 97 97 96 96 96 98 97 97 94 97 100 99 100 98 100 100 100 100 100 100 100 100 97
81 79 82 82 85 84 85 91 92 90 92 92 92 94 97 95 95 91 93 96 97 98 97 97 97 96 97 99 97 99 99 100 99 99 99 99 99 100 99 100 99 99 96
85 84 86 85 87 86 93 91 93 92 90 91 93 92 92 93 99 100 100 100 95 91 94 94 90 96 94 95 97 99 100 99 100 99 99 100 99 99 99 99 100 100 100
90 91 90 90 90 95 97 94 92 93 94 95 96 95 91 91 97 99 99 99 99 99 98 87 89 88 95 94 95 99 99 99 99 100 98 100 100 100 100 99 99 100 100
93 93 92 91 90 92 97 97 96 96 95 95 95 95 99 98 99 97 98 99 99 99 99 100 97 100 100 99 96 96 97 100 100 100 98 100 100 100 100 100 98 99 100
92 92 90 90 90 92 94 97 94 96 96 97 96 95 95 96 97 96 94 99 98 97 99 99 97 97 97 98 100 99 100 100 100 100 100 100 100 100 99 99 100 98 99
92 91 90 89 83 89 84 88 92 95 96 96 95 97 96 96 95 96 95 95 96 98 97 96 96 97 97 98 98 100 99 99 100 100 100 99 99 98 99 99 99 99 100

GFSMA_sfc_rhum_120.txt.gz
RH
98 97 96 95 90 91 93 92 94 92 94 97 98 98 98 97 97 98 99 96 93 91 86 81 82 81 88 89 86 84 85 87 88 87 89 91 84 91 93 89 91 91 90
97 97 96 94 95 96 93 91 89 89 87 91 94 95 97 97 97 98 98 96 95 93 92 87 83 82 83 85 89 88 86 85 85 85 88 92 88 90 94 90 92 92 91
94 95 96 94 92 91 98 96 98 96 93 90 90 93 95 98 98 97 97 96 94 95 95 92 89 87 84 83 88 88 87 85 84 83 88 92 90 89 95 93 92 92 91
91 94 96 93 96 98 98 97 96 97 98 97 93 93 94 96 97 97 96 97 96 92 95 94 91 89 87 84 85 86 86 87 85 85 88 93 92 93 96 94 93 92 92
89 95 95 96 96 97 99 98 97 97 97 98 98 96 95 97 96 96 96 97 97 95 95 95 94 93 90 88 86 84 84 86 85 84 85 92 93 95 94 93 92 91 91
88 92 94 94 94 96 98 99 98 99 98 97 98 99 98 98 98 98 97 97 97 97 96 95 95 94 92 90 89 86 84 83 84 84 84 91 92 95 94 93 91 90 90
89 89 92 94 95 96 94 91 98 99 97 93 97 99 98 99 98 99 99 99 99 98 98 97 96 94 91 92 92 88 84 80 83 83 84 86 85 92 95 93 91 90 90
89 85 94 95 96 97 95 93 91 99 97 94 94 96 91 83 93 98 98 99 99 98 96 94 93 91 90 89 93 94 89 84 82 84 84 85 88 93 95 93 91 90 88
86 91 93 95 94 95 96 98 97 93 98 99 97 97 100 97 97 97 92 95 97 98 97 96 95 91 88 90 93 95 98 94 86 83 86 88 88 86 94 92 90 89 87
83 86 86 87 89 91 93 93 95 97 98 97 100 98 97 94 97 99 99 96 97 97 95 95 95 93 91 91 92 95 99 99 95 89 87 87 91 91 95 92 90 88 86
79 79 84 86 89 91 91 93 93 90 97 94 96 99 98 97 97 93 98 99 98 92 86 93 93 93 93 91 92 93 100 100 100 95 91 88 89 90 94 92 90 88 86
78 82 82 86 87 89 91 92 93 94 94 91 91 94 92 92 92 90 89 90 89 94 88 83 88 94 94 94 92 95 98 98 98 98 96 93 90 90 91 91 90 88 86
84 85 84 87 88 88 89 90 93 94 95 96 92 92 88 87 88 79 81 87 91 89 96 88 89 91 94 94 91 97 97 98 98 98 97 97 96 93 88 90 90 88 87
82 81 84 85 86 86 87 90 94 95 95 97 95 90 90 88 86 84 81 83 92 95 98 93 92 90 93 95 95 99 93 100 100 97 95 96 97 97 96 92 91 89 88
76 80 82 84 85 85 86 89 93 93 95 95 95 93 93 89 91 88 85 82 82 87 90 88 94 92 90 92 95 95 93 100 100 99 100 100 99 98 97 98 95 93 91
81 82 82 83 83 84 85 87 90 89 93 93 95 93 89 90 89 91 90 89 87 83 82 81 92 95 92 91 93 94 92 98 100 100 100 100 100 99 98 98 97 96 95
82 81 82 82 83 84 84 87 89 87 89 92 93 94 90 89 94 93 93 91 91 90 89 85 91 95 98 96 95 97 94 94 96 100 100 100 100 100 100 100 100 99 98
80 79 80 81 82 82 84 88 90 90 92 93 93 94 91 90 93 91 93 91 91 90 89 89 97 99 98 97 94 96 92 94 94 100 100 100 100 100 100 100 100 100 100
80 79 79 83 84 87 85 85 88 88 88 89 91 94 93 90 92 90 91 91 92 90 91 84 93 98 98 98 98 97 97 97 97 99 100 100 100 100 100 100 100 100 100
83 81 82 82 87 86 84 84 84 87 87 86 90 91 93 95 96 94 93 92 89 93 94 94 91 95 97 96 95 97 99 99 99 100 100 100 99 100 100 100 100 100 100
84 82 84 83 87 85 86 88 84 85 86 87 87 85 88 90 92 96 95 92 94 95 94 96 94 94 95 96 97 97 97 99 100 99 99 100 99 99 99 100 100 100 100
85 86 88 86 90 85 96 87 85 86 84 85 89 87 85 87 92 94 97 99 100 92 95 96 91 95 92 92 96 97 100 99 100 100 99 100 99 100 99 99 100 100 100
89 89 88 88 90 87 86 85 86 89 89 90 91 90 86 84 90 94 94 96 97 98 99 99 94 92 91 90 93 98 98 97 98 100 99 100 100 100 99 99 98 99 100
94 94 88 87 89 90 82 82 84 91 92 92 93 95 95 94 94 95 96 97 99 98 99 98 98 100 100 91 88 91 96 98 100 100 100 100 100 100 100 100 98 97 99
92 92 90 90 89 89 76 78 86 89 90 90 90 94 94 94 96 93 94 96 96 96 96 95 96 96 96 98 99 98 100 99 100 100 100 100 100 100 100 100 100 98 98
92 90 90 86 83 89 75 74 83 90 92 90 88 89 88 95 96 95 96 96 95 97 97 97 96 95 96 97 98 100 99 99 100 100 100 100 100 100 100 99 99 100 100

GFSMA_sfc_rhum_123.txt.gz
RH
94 92 92 92 84 73 80 82 77 78 85 87 84 78 74 71 68 67 71 96 95 92 85 80 82 86 87 88 89 90 86 86 88 89 89 90 92 89 87 89 89 89 88
96 95 93 94 94 94 92 85 80 79 79 84 90 89 78 72 71 75 67 72 96 94 91 86 83 83 85 86 90 90 86 85 87 87 86 87 87 90 89 90 90 90 90
92 92 93 94 91 91 95 91 92 91 80 80 84 87 90 86 76 76 73 72 69 97 94 92 91 86 84 83 86 88 87 86 86 84 85 86 86 92 92 91 91 91 91
82 88 90 92 87 94 92 89 94 95 95 91 83 81 87 92 90 84 79 79 68 62 85 94 92 91 88 83 83 86 87 87 87 86 86 86 86 87 94 92 91 91 91
72 73 76 83 86 95 95 97 95 94 91 91 93 92 91 95 91 92 92 91 81 71 66 85 94 93 92 89 85 83 85 86 86 86 85 86 88 86 93 93 92 92 92
71 72 70 74 75 76 83 95 98 97 96 93 94 95 95 97 91 96 92 90 91 89 83 84 79 76 94 91 88 85 82 83 85 86 87 86 87 87 92 94 93 92 91
76 72 66 71 74 75 74 75 80 96 98 97 98 96 93 94 96 95 94 93 90 89 87 89 88 75 66 92 90 88 82 80 83 84 86 87 88 88 91 95 94 92 91
75 70 77 77 80 80 79 77 76 80 96 95 96 95 98 93 88 90 92 93 88 88 91 89 84 73 71 63 75 88 86 84 83 84 87 87 87 88 94 94 94 93 91
72 78 78 79 80 84 87 87 86 80 82 94 90 94 98 94 74 74 78 81 86 90 91 76 75 73 73 68 79 81 91 92 87 84 86 87 88 88 94 95 95 94 91
73 76 78 81 84 86 88 88 84 87 85 83 90 92 79 89 93 96 86 82 80 88 83 77 74 75 73 72 76 82 92 96 94 89 86 88 88 88 86 92 92 94 93
71 75 78 81 83 84 87 90 90 90 89 87 78 91 96 91 88 96 90 91 86 76 67 72 71 72 72 73 73 78 94 97 97 95 91 88 89 89 90 88 94 94 91
72 73 76 79 81 84 87 88 89 90 93 92 88 78 87 80 81 85 91 80 81 78 76 68 67 67 69 72 78 88 96 98 100 97 95 92 90 90 92 88 91 92 90
76 76 77 81 82 83 83 85 88 89 91 94 92 90 82 81 73 75 71 72 68 59 71 68 66 62 63 71 77 93 97 99 99 98 97 96 95 93 92 91 90 93 93
75 74 77 78 80 80 82 83 87 91 92 95 94 93 90 78 77 77 83 86 82 71 63 64 60 62 64 75 84 98 82 100 100 99 97 98 98 97 96 94 94 93 90
71 76 76 79 79 80 81 83 86 86 90 92 93 94 93 88 81 82 76 81 88 85 68 60 61 63 61 66 81 80 83 96 100 99 99 99 97 98 98 97 95 97 95
76 76 78 78 79 79 80 82 85 84 87 90 89 92 92 91 85 85 86 81 86 85 80 58 55 55 65 67 83 85 85 94 100 100 100 99 96 96 97 97 98 98 97
76 77 79 81 80 82 81 84 86 84 88 89 90 91 93 90 92 88 89 90 91 90 93 76 62 60 67 74 80 91 89 88 88 100 100 100 100 99 99 100 100 99 98
76 78 79 82 80 81 81 83 86 84 88 89 90 91 91 86 90 87 88 91 93 91 93 90 78 76 75 79 78 88 90 92 91 98 99 100 100 100 100 100 100 100 100
74 75 79 85 85 86 82 80 78 81 83 85 86 89 89 89 92 94 95 89 88 87 88 90 85 80 85 87 91 93 95 95 93 96 100 100 100 100 100 100 100 100 100
74 75 78 82 89 84 81 80 77 78 79 79 83 84 86 89 92 94 92 94 92 92 90 89 92 94 94 92 94 96 97 94 97 98 99 99 99 100 100 100 100 99 99
72 72 75 78 85 84 86 85 79 77 77 78 80 77 82 87 88 91 93 95 95 95 93 92 93 94 94 96 97 91 93 95 98 99 98 99 98 97 98 99 99 99 100
70 70 73 74 81 72 80 82 80 80 78 79 81 82 76 83 86 86 92 94 95 96 96 94 91 96 91 89 89 91 93 99 99 99 98 99 99 98 99 97 100 100 100
79 81 79 78 80 75 73 79 80 82 83 86 88 87 83 80 88 85 83 87 91 91 96 97 98 96 96 87 82 89 93 89 93 99 98 100 100 100 100 97 97 99 100
88 88 88 83 83 82 70 73 80 91 93 90 90 92 92 93 92 89 86 88 91 93 97 97 99 100 99 98 97 88 89 96 100 100 100 100 100 100 100 100 96 96 98
86 88 87 87 87 87 70 70 81 86 91 90 89 89 88 94 87 90 91 94 96 94 94 94 97 100 98 97 96 99 100 99 100 100 100 100 100 100 100 100 100 96 98
85 79 83 86 81 87 70 70 78 82 88 86 85 89 80 82 80 84 93 94 93 96 96 94 94 92 95 94 99 100 98 100 100 100 100 100 100 100 100 100 100 100 100

GFSMA_sfc_rhum_126.txt.gz
RH
81 78 84 88 83 73 65 68 70 67 67 64 61 59 56 54 49 40 41 91 95 93 85 80 80 83 85 85 85 88 85 86 87 89 90 89 90 91 90 86 90 88 90
90 83 80 83 85 89 84 76 73 73 78 82 71 66 63 56 52 52 43 50 96 95 92 86 82 81 84 86 86 89 89 84 88 88 89 89 89 89 92 90 89 88 88
90 86 72 73 74 76 85 87 80 83 87 87 83 78 72 67 62 57 53 47 54 98 95 92 89 88 86 85 85 87 88 86 86 88 87 88 88 85 88 94 91 89 88
78 85 87 89 86 88 95 90 85 83 89 92 92 89 83 76 69 64 64 62 49 42 86 94 92 90 88 86 84 84 84 85 87 88 87 87 88 87 88 95 93 90 89
65 66 63 69 79 81 84 91 94 91 88 86 88 89 89 87 79 82 73 71 68 60 52 85 93 93 92 88 85 83 81 82 84 85 87 88 88 88 88 93 94 92 90
63 59 51 58 60 56 60 76 91 93 96 94 92 93 93 92 89 92 89 78 71 68 66 67 68 66 95 91 88 84 82 82 84 85 86 87 88 88 89 91 93 93 92
66 62 54 54 55 55 57 63 62 68 75 83 97 98 96 93 96 99 98 91 80 67 72 70 64 57 54 91 89 86 83 82 83 84 86 87 87 89 88 91 93 92 91
65 63 74 72 74 71 72 68 66 61 58 76 95 98 98 97 90 87 86 82 84 71 72 70 66 67 58 46 66 91 86 84 83 83 85 88 88 89 90 92 93 92 91
66 73 77 78 81 81 81 79 79 82 65 56 78 77 90 88 61 68 78 77 77 68 66 71 75 66 66 56 58 76 92 91 87 84 85 88 91 90 90 92 93 92 92
68 74 76 74 78 79 83 86 80 87 85 80 62 88 73 56 61 59 59 66 66 66 68 57 57 61 55 56 63 68 91 95 92 88 86 86 90 91 91 92 93 93 92
63 68 72 73 76 76 81 85 87 89 90 90 80 68 72 72 76 74 58 58 57 54 53 58 56 54 52 54 53 62 89 94 93 89 89 89 90 91 91 92 93 92 93
64 67 68 70 74 76 80 82 85 86 88 89 90 84 78 79 58 66 66 55 50 50 52 50 55 57 52 50 57 71 89 93 95 92 89 90 90 91 91 91 93 92 93
71 69 71 74 74 77 78 79 82 83 85 91 89 88 85 81 74 70 73 56 48 43 46 47 47 48 48 52 52 76 91 96 95 94 94 94 94 93 92 91 90 91 91
72 70 72 73 75 75 76 78 80 81 81 84 89 91 91 87 83 75 64 72 69 53 46 51 43 45 46 46 53 84 59 98 98 98 96 95 95 95 96 94 93 90 91
68 71 73 76 75 76 76 78 79 80 80 83 85 88 90 87 89 86 84 67 75 73 58 48 59 50 42 43 51 56 61 85 100 99 98 96 96 96 97 97 97 94 93
71 74 76 76 75 75 76 78 81 80 83 86 85 88 89 88 91 90 89 82 70 73 71 47 47 60 48 39 48 59 62 80 100 100 100 100 99 97 98 98 99 98 95
71 73 75 76 75 76 75 77 78 78 82 84 85 86 87 86 90 92 93 90 79 84 84 63 51 50 58 58 50 58 64 64 60 100 100 100 100 100 99 99 99 100 99
69 69 70 73 70 73 75 77 78 77 80 83 84 85 85 78 88 88 92 92 94 86 86 85 73 63 66 62 63 69 70 70 64 88 99 99 99 100 100 99 98 99 100
66 68 68 73 71 73 74 74 75 77 78 80 83 83 86 86 90 91 91 91 92 89 92 92 88 84 82 76 72 71 78 75 79 91 100 100 100 100 99 100 100 99 100
60 62 65 66 67 67 71 73 70 73 74 78 83 81 84 88 90 91 90 93 89 91 89 93 88 78 82 78 76 79 91 92 90 86 96 97 99 99 99 99 100 99 99
54 53 55 57 58 58 65 76 69 70 72 75 78 75 81 85 85 84 88 93 92 94 93 92 92 91 88 93 91 86 92 87 94 90 97 97 97 96 96 99 97 99 100
59 59 61 59 58 46 71 77 74 71 72 75 77 76 74 81 83 85 85 84 90 96 95 96 95 95 90 96 89 89 92 95 98 99 97 98 98 97 97 96 99 100 100
65 73 68 66 68 64 70 73 73 76 77 81 84 82 74 71 81 79 84 90 86 88 91 94 96 97 97 97 97 95 94 92 90 83 96 100 100 100 99 98 100 100 100
86 86 82 81 75 74 68 70 70 82 92 86 88 88 90 89 84 80 76 84 96 95 96 94 96 97 96 94 95 94 96 99 95 100 98 100 100 100 100 100 97 99 100
85 83 82 79 80 80 67 67 74 86 96 87 86 86 83 87 77 79 86 91 96 99 89 87 94 90 92 93 91 93 96 98 100 100 100 100 100 100 100 100 100 96 98
85 78 82 79 73 79 68 66 76 74 81 75 77 81 71 76 72 75 88 90 93 95 97 98 100 95 93 96 95 96 97 98 100 100 100 100 100 100 100 100 100 100 100

GFSMA_sfc_rhum_129.txt.gz
RH
80 79 75 76 73 75 74 69 67 68 76 74 71 64 58 50 47 39 34 90 91 89 84 79 80 82 87 89 90 89 87 85 85 88 89 89 90 91 92 92 92 92 92
86 86 81 80 80 78 68 72 76 72 74 72 76 75 71 62 57 51 39 60 92 92 90 87 84 83 85 87 89 90 89 85 84 88 90 90 90 91 91 92 92 93 92
87 87 90 88 87 83 80 81 79 79 73 72 69 67 72 70 63 62 55 41 65 95 93 92 90 87 86 86 88 88 89 89 85 85 89 90 91 90 90 92 93 92 91
74 79 82 90 89 90 92 85 88 92 87 85 83 78 74 74 70 73 69 58 48 50 89 92 91 90 89 87 87 87 88 90 88 87 87 90 90 92 90 90 92 94 90
66 67 64 69 77 74 84 86 90 92 90 90 92 87 85 82 81 74 71 74 72 68 68 90 92 93 91 88 85 85 84 87 87 87 87 86 87 90 89 88 92 94 93
60 58 50 55 55 53 53 59 74 72 92 93 90 93 92 88 86 88 84 87 85 88 87 80 80 74 94 90 87 85 85 84 84 85 87 87 88 89 88 89 91 92 93
63 62 61 61 63 61 64 66 62 64 58 70 92 89 93 93 90 96 98 95 94 90 92 91 79 80 68 92 90 86 85 83 82 82 85 87 88 90 90 89 91 92 93
64 62 71 70 71 71 74 76 77 72 60 54 77 91 92 91 97 96 94 91 85 67 77 75 73 70 70 67 74 90 86 83 82 83 84 87 89 89 90 90 91 92 92
60 69 69 68 70 72 74 78 81 85 84 68 63 73 89 73 61 83 93 89 85 78 71 69 72 72 71 68 68 82 92 90 86 84 85 88 89 90 91 91 91 92 92
58 64 68 69 70 69 75 78 73 84 87 91 74 58 62 70 84 75 74 82 78 75 74 67 62 65 66 65 71 79 95 96 92 87 87 88 89 90 91 92 91 92 91
56 59 65 68 71 68 74 78 80 83 83 90 88 86 76 64 66 78 80 62 69 67 67 68 65 61 63 68 66 68 90 95 94 90 88 88 89 89 90 92 92 92 92
56 62 64 67 70 72 75 77 78 81 82 85 85 84 88 88 75 69 79 73 66 55 54 56 63 63 61 62 62 70 83 92 94 93 91 91 89 90 90 92 92 92 92
72 73 70 71 71 73 74 74 77 79 81 87 87 88 86 86 83 84 83 79 71 58 55 52 56 54 55 64 59 76 82 90 94 94 93 92 93 91 92 92 92 92 92
72 73 79 75 76 74 71 73 74 78 80 86 86 86 84 78 82 87 90 91 84 65 54 58 47 45 46 49 59 78 60 89 93 95 94 94 95 95 95 95 94 93 91
64 69 71 77 72 70 72 75 76 80 79 82 85 86 87 84 85 84 87 89 94 90 72 53 52 48 56 54 51 59 66 88 94 96 96 96 96 96 96 96 96 95 94
68 69 71 71 69 71 72 74 75 76 79 82 80 85 85 85 85 87 90 92 91 92 89 63 54 58 60 47 62 65 54 84 96 98 98 98 97 96 97 98 98 97 96
69 70 71 73 71 72 72 74 74 75 77 80 82 83 84 83 87 88 90 91 93 95 96 78 64 56 64 62 52 63 74 64 65 100 100 100 100 98 99 99 99 99 98
72 70 70 68 68 69 71 74 76 76 79 82 82 83 84 78 86 87 90 92 92 91 96 96 80 73 73 65 61 64 59 55 60 85 100 100 100 100 100 100 100 100 100
57 60 59 61 60 66 68 68 69 72 74 80 82 84 85 85 88 88 89 90 90 85 91 94 93 82 77 71 69 69 71 70 65 84 100 100 100 100 100 100 99 100 100
50 50 52 53 53 57 68 71 65 67 69 70 76 74 79 84 88 88 86 89 88 91 89 91 90 91 89 83 84 83 80 72 72 68 88 90 98 99 99 99 99 99 99
51 50 51 51 50 50 59 72 63 64 66 67 69 67 72 78 79 83 86 89 90 92 92 93 92 90 90 92 94 93 92 92 83 79 82 89 95 97 97 99 98 98 99
55 55 56 54 55 41 69 71 66 64 65 65 65 68 63 75 77 80 79 86 92 94 91 94 94 96 96 95 93 95 94 93 95 85 88 89 96 95 95 96 98 100 99
63 68 66 62 62 59 67 74 72 66 66 71 73 72 61 60 76 74 74 78 82 85 90 90 91 93 94 94 94 96 96 96 96 86 93 99 96 99 94 96 100 100 100
84 82 78 75 69 67 66 70 72 73 83 78 80 76 79 79 76 74 70 76 89 90 90 91 95 96 97 96 92 88 90 91 91 92 96 100 100 100 100 100 100 100 100
84 82 81 76 77 80 66 67 71 79 90 86 80 77 76 81 70 72 79 86 87 89 82 76 77 84 85 85 92 87 88 91 93 98 98 99 100 100 100 100 100 98 100
84 79 82 79 72 81 66 66 75 74 77 74 74 78 67 71 66 68 84 87 90 90 87 86 89 86 84 86 81 97 96 91 94 95 97 98 100 100 100 100 100 100 100

GFSMA_sfc_rhum_135.txt.gz
RH
96 96 98 97 98 98 98 98 97 94 93 89 87 81 75 85 86 91 90 87 91 88 83 86 88 89 89 90 91 91 91 89 88 88 90 91 93 93 93 93 95 95 94
96 96 96 93 95 97 97 97 98 98 97 96 93 88 85 89 86 94 93 95 91 91 89 85 86 87 88 90 92 91 91 90 88 88 90 91 93 93 93 93 93 94 94
85 82 87 86 94 96 94 96 96 96 97 96 94 95 95 93 96 98 98 96 97 96 93 91 88 88 87 88 92 92 91 91 90 89 89 91 91 92 93 94 93 93 94
77 80 76 82 79 82 85 86 91 92 97 98 98 97 98 98 97 97 97 96 94 97 97 98 97 90 89 89 91 91 91 91 91 90 89 91 91 91 91 92 94 94 94
76 77 74 74 74 78 85 85 88 92 93 92 90 94 96 98 96 94 93 95 94 96 98 98 99 99 98 94 89 89 90 90 91 90 90 90 92 91 90 90 92 94 94
71 74 75 78 74 76 79 81 84 84 90 92 83 89 96 97 98 98 92 88 91 91 96 98 98 98 99 98 95 91 86 89 89 90 90 90 91 92 91 90 91 92 93
74 72 71 74 72 77 75 78 78 81 89 84 98 95 94 91 95 98 98 98 96 96 96 97 97 95 92 94 96 92 88 84 87 89 88 89 91 92 92 92 90 90 92
76 71 78 73 71 76 74 76 74 78 75 79 92 97 98 92 91 90 94 98 98 98 97 92 91 89 89 90 93 96 92 85 84 86 88 89 90 92 93 93 92 89 90
76 79 78 77 76 75 79 76 78 78 82 73 75 90 97 99 86 87 78 90 91 98 98 93 91 84 82 81 82 94 96 95 89 85 88 87 89 90 93 94 93 92 90
75 79 79 77 74 76 76 76 72 79 82 83 77 72 79 83 93 92 88 78 87 81 87 91 92 83 78 79 78 87 98 98 96 91 90 82 88 89 92 93 94 92 92
70 74 78 81 76 77 77 76 76 78 80 89 89 89 87 83 79 92 89 89 75 81 80 82 76 82 80 78 83 82 96 99 97 92 88 87 82 88 91 92 92 92 92
72 72 70 76 76 77 78 79 76 77 84 84 85 86 90 94 91 94 88 79 86 76 72 74 87 81 84 88 84 86 91 96 97 90 87 90 92 88 92 92 91 92 92
76 75 75 78 77 76 76 78 80 78 80 86 85 86 83 86 87 89 90 90 84 76 74 76 76 82 75 84 87 95 93 96 96 98 97 95 95 93 93 92 91 91 91
75 73 77 76 75 77 76 76 78 78 77 83 83 82 82 80 79 85 91 96 94 86 73 68 68 75 79 78 83 86 88 100 97 96 96 95 96 96 97 95 93 93 92
66 74 74 76 75 76 79 77 80 80 78 80 82 81 83 81 80 81 84 88 96 96 93 73 79 70 74 72 78 80 87 97 100 99 100 100 99 98 99 100 98 96 95
72 72 70 72 74 77 81 81 83 82 83 84 80 83 85 84 83 86 90 90 91 95 96 85 80 73 73 70 72 77 77 91 96 100 100 100 100 99 99 98 100 99 98
74 72 68 72 73 76 79 90 78 80 83 88 80 84 87 83 89 89 89 90 90 93 96 86 76 72 74 77 71 78 78 75 82 85 86 98 100 100 100 100 100 100 100
75 66 65 67 72 74 75 81 79 75 77 83 84 80 84 78 89 87 91 92 93 91 95 95 80 78 76 72 74 75 66 58 72 69 82 90 100 100 100 100 100 100 100
70 63 61 65 71 77 80 78 70 72 72 75 77 79 81 83 89 89 87 88 87 83 92 91 88 78 75 73 78 77 73 74 61 73 79 79 90 98 100 100 100 100 100
70 64 66 67 69 73 78 79 66 72 70 76 79 74 76 79 85 87 86 88 83 86 84 86 86 85 83 78 81 88 87 79 81 73 74 81 84 86 90 100 100 100 100
73 66 68 69 68 71 73 76 69 73 69 70 74 69 72 72 74 76 82 92 89 88 87 82 85 84 86 87 92 89 88 87 83 86 87 85 88 87 83 87 98 100 100
77 78 74 72 69 62 80 73 73 78 71 67 71 73 65 72 73 75 75 80 89 95 91 90 87 89 90 91 88 90 89 91 93 83 87 85 84 83 81 78 82 87 95
82 85 83 80 76 68 77 81 79 81 84 82 82 78 65 61 73 72 74 76 82 84 84 89 91 94 92 96 92 89 90 91 90 87 82 90 86 88 81 71 84 90 91
96 96 89 88 85 67 71 78 80 86 87 86 88 83 85 83 72 71 75 80 87 90 82 78 86 88 88 87 84 84 86 86 85 96 84 96 90 88 84 86 92 79 89
95 94 91 87 88 89 65 71 85 90 90 91 85 86 80 82 66 72 82 85 86 88 80 72 71 71 73 75 75 82 86 86 89 96 94 94 91 90 90 95 92 76 84
93 90 92 93 74 87 64 64 79 94 93 90 87 87 64 68 63 66 84 84 88 91 89 86 84 82 79 82 77 87 90 90 94 95 91 96 95 93 93 96 82 84 88

GFSMA_sfc_rhum_138.txt.gz
RH
96 97 98 98 98 97 96 96 97 97 97 96 96 95 92 92 93 96 98 98 96 92 84 75 78 79 86 89 90 91 92 91 91 90 91 92 93 94 93 94 95 95 95
94 94 96 95 94 95 97 98 97 98 98 97 96 96 96 95 94 95 96 98 99 97 98 95 84 72 78 86 90 91 91 90 90 90 91 91 93 93 94 94 94 95 95
84 78 82 84 90 87 92 93 93 94 94 92 95 97 97 97 98 98 98 98 98 100 93 94 85 93 76 81 89 91 91 91 90 90 90 91 92 93 93 93 94 95 94
77 85 80 83 81 80 85 89 93 93 95 96 95 94 95 97 97 97 98 97 96 93 93 85 84 97 98 97 87 88 91 92 92 90 90 92 92 92 93 93 94 94 94
77 82 80 81 80 80 79 80 89 94 94 95 89 90 94 95 97 98 99 97 95 94 93 99 99 98 93 89 94 87 83 87 92 91 90 92 92 92 92 93 93 94 94
76 79 78 79 78 76 79 80 83 83 90 92 80 89 97 94 95 98 98 96 97 96 96 96 98 94 93 92 91 95 88 84 86 89 88 90 92 92 92 93 92 93 93
78 80 82 79 78 83 82 80 82 83 89 81 98 93 96 96 94 97 99 99 98 97 97 96 98 98 97 96 93 93 93 80 82 85 85 86 90 94 93 92 92 91 93
80 74 84 83 82 84 80 78 83 85 84 77 88 96 98 92 93 90 93 95 93 98 98 98 97 94 94 94 95 91 89 84 84 83 84 86 89 93 95 93 92 91 92
78 79 82 86 79 78 81 79 77 80 85 76 74 88 89 90 84 88 84 91 93 91 93 82 82 88 88 91 92 93 93 91 87 80 80 90 90 90 89 95 93 92 91
77 79 82 84 76 79 79 78 73 79 82 86 79 72 76 82 89 95 88 84 80 83 90 87 89 75 72 86 88 91 93 96 95 88 82 82 85 85 79 84 94 93 92
72 72 75 75 77 79 78 79 78 80 85 90 89 89 86 83 78 92 83 93 78 86 80 88 79 86 68 76 84 87 93 94 98 95 90 84 77 84 87 79 92 94 93
76 74 74 76 77 78 79 81 81 78 83 85 86 88 90 92 89 93 92 82 78 77 68 73 90 91 85 80 81 89 93 98 98 98 97 95 90 78 87 84 84 92 93
78 78 77 78 79 80 77 77 78 78 79 84 82 85 84 86 84 88 91 89 88 76 74 67 80 77 74 81 80 87 88 92 98 99 98 96 93 92 86 84 88 85 87
79 78 76 76 77 79 82 78 80 79 79 83 80 80 82 81 80 84 90 95 94 84 72 69 65 72 70 77 82 82 82 91 94 97 99 98 97 93 87 89 90 90 90
71 84 75 79 78 81 88 84 89 90 87 84 87 87 87 85 82 82 85 88 95 96 94 80 82 71 73 72 70 74 83 82 88 92 90 94 98 98 98 94 88 92 90
80 74 70 72 77 77 86 88 89 89 96 94 94 95 93 91 89 86 87 88 87 94 95 79 76 73 68 59 61 70 72 76 81 87 90 92 96 99 99 99 100 97 94
75 70 72 79 81 80 82 88 88 88 93 93 90 94 93 89 96 90 88 89 90 92 95 83 74 69 68 69 68 73 72 69 73 80 83 90 92 95 99 100 100 100 100
71 73 70 76 78 81 85 80 79 78 82 81 79 81 84 76 88 91 90 88 90 89 95 91 74 75 72 68 71 72 66 56 66 75 83 85 89 91 92 99 100 100 100
70 71 71 76 80 85 85 77 73 81 83 80 76 79 78 83 87 89 87 89 88 78 84 87 85 75 72 71 74 73 70 70 63 69 74 76 85 79 86 88 89 96 99
73 72 73 74 81 80 77 74 67 66 70 75 76 74 72 78 85 88 82 89 80 84 80 81 82 79 82 74 77 85 83 76 82 67 70 72 75 75 78 80 84 87 92
73 72 71 72 76 77 70 82 70 66 65 66 68 62 69 69 74 73 82 90 88 85 82 81 82 80 84 85 90 85 86 85 86 86 78 77 79 79 74 77 82 83 89
81 77 78 71 80 71 81 75 77 74 69 68 67 68 63 69 71 73 77 82 82 86 86 87 83 82 87 89 84 86 86 88 90 85 83 88 79 81 77 76 85 78 86
86 90 86 82 82 79 72 74 72 79 81 86 88 78 64 59 69 65 72 77 82 77 78 89 89 93 89 94 88 84 86 84 89 92 79 97 85 85 80 71 79 75 82
97 97 94 92 85 73 73 69 70 85 89 90 91 82 89 82 71 66 65 78 88 90 82 76 88 91 92 82 84 79 81 81 86 95 83 97 90 89 84 92 76 71 77
97 98 96 91 91 88 69 73 85 94 94 93 87 86 83 83 67 71 79 86 88 90 81 72 73 72 76 73 75 80 88 84 92 98 88 95 92 90 94 98 86 69 78
97 95 95 95 76 92 64 69 90 97 97 95 90 91 63 70 64 67 84 86 91 94 91 87 86 85 84 85 79 87 92 92 94 97 88 96 92 92 93 96 83 82 89

GFSMA_sfc_rhum_141.txt.gz
RH
95 96 95 94 96 97 98 99 98 99 98 97 97 96 97 97 98 98 99 98 95 93 87 83 85 86 80 84 87 87 90 91 92 92 93 94 94 94 94 94 96 96 95
89 89 90 90 93 95 96 96 97 97 97 96 95 95 97 98 98 98 98 98 97 97 93 83 84 84 87 84 87 84 82 88 90 91 92 93 94 94 94 94 95 95 95
85 80 81 77 84 82 89 93 93 95 95 92 93 92 93 95 98 97 98 99 98 100 97 94 87 83 85 88 86 88 89 80 88 91 91 92 93 93 94 94 95 96 95
84 86 83 81 85 86 82 86 93 92 95 98 97 94 94 92 90 96 98 98 98 96 96 95 91 84 82 79 82 85 86 96 78 86 92 92 92 92 93 94 94 96 95
81 85 84 84 84 84 84 84 87 93 93 92 86 89 94 95 94 93 98 98 98 98 98 96 92 90 87 86 88 86 91 88 95 81 86 92 93 92 92 93 93 94 95
81 84 83 84 83 84 83 84 86 84 92 89 78 84 96 95 94 96 97 98 98 98 98 98 98 99 99 97 96 91 84 83 90 87 85 87 92 94 93 92 93 94 94
79 83 87 85 84 87 85 82 84 87 93 83 97 92 96 96 95 98 98 98 95 97 97 98 98 98 98 93 92 88 81 81 88 86 88 84 83 92 94 94 93 94 92
81 76 88 90 86 87 84 83 81 84 82 81 97 94 98 92 92 88 94 95 92 95 80 72 79 86 93 96 97 95 89 87 84 84 82 84 88 85 95 95 94 92 94
81 86 86 88 87 86 85 81 78 80 88 78 84 87 95 97 91 89 88 92 89 93 89 87 82 69 73 82 94 96 96 94 90 86 85 83 80 82 81 94 94 94 94
82 86 87 86 86 82 82 80 75 82 85 88 82 75 79 85 95 96 88 93 81 83 87 85 80 77 81 78 84 94 93 98 98 92 88 86 84 82 78 90 94 94 94
83 83 84 81 80 80 80 82 81 81 84 89 89 89 85 81 76 92 84 94 73 80 87 76 76 89 83 85 80 81 90 95 94 95 95 94 93 88 85 80 88 92 94
88 85 81 84 80 81 80 80 79 77 81 82 83 87 90 95 92 94 91 81 76 70 68 67 90 91 88 76 74 84 87 89 92 86 90 98 97 95 92 86 86 85 84
92 91 88 90 83 84 80 79 80 80 80 83 81 84 81 84 84 87 92 92 90 76 71 71 74 81 67 76 83 78 79 87 86 86 88 93 97 98 95 93 86 79 77
92 86 87 89 85 84 85 83 86 84 80 84 84 86 86 89 88 89 91 94 94 88 76 74 74 74 69 68 70 75 80 84 84 85 86 90 94 98 99 98 95 89 80
63 81 83 86 84 85 85 86 85 89 86 85 87 86 88 91 96 96 91 92 97 95 89 78 80 68 66 65 64 71 76 77 80 86 86 89 92 95 98 98 99 98 94
73 77 82 85 86 86 86 88 89 82 86 90 88 90 91 91 97 97 96 96 96 96 95 78 77 69 65 58 61 67 66 68 77 84 86 86 89 90 94 96 98 98 98
78 77 82 85 88 86 85 84 84 86 84 86 85 90 92 93 95 96 97 96 95 97 95 81 71 67 66 67 67 68 68 64 70 77 80 86 86 88 88 91 94 95 97
78 79 81 85 88 89 79 80 87 85 82 82 81 79 82 72 88 94 96 95 95 97 96 91 74 73 70 66 68 69 63 59 66 68 73 77 81 82 89 90 92 92 89
77 76 77 84 88 84 76 72 75 77 80 80 78 74 77 81 84 85 83 86 85 75 84 84 82 73 72 70 72 70 66 69 63 67 66 72 76 78 83 83 88 86 84
76 76 76 80 73 83 73 66 63 68 70 72 69 72 71 80 84 84 79 84 76 80 82 81 82 80 78 73 76 81 79 72 84 62 64 68 71 74 79 77 79 83 78
77 75 76 71 76 76 69 77 68 68 66 68 66 61 67 70 72 79 77 88 80 80 82 80 79 79 82 83 86 81 81 80 87 78 70 76 77 74 74 81 74 77 78
82 82 80 79 83 73 70 70 72 75 70 70 68 66 57 66 64 72 76 77 75 85 83 84 82 84 87 88 85 86 88 87 86 80 73 82 78 77 77 76 71 75 74
88 92 91 88 86 74 67 71 76 81 84 86 85 79 58 55 63 58 68 77 79 74 77 85 85 93 90 91 89 86 88 85 87 84 80 96 84 83 80 72 69 71 72
97 98 96 95 88 71 66 70 74 88 92 92 93 87 87 80 71 63 60 73 87 89 81 74 88 90 86 80 83 77 82 80 89 89 84 95 90 87 86 93 71 69 73
96 99 98 94 94 93 68 69 82 93 94 93 86 87 83 83 68 74 78 85 88 91 82 73 74 73 79 72 76 77 88 86 96 98 89 96 92 91 98 98 85 68 73
99 96 95 96 80 95 66 67 87 96 95 93 89 90 66 74 66 71 89 89 92 96 96 93 91 90 90 89 78 89 94 93 95 98 90 96 94 93 95 96 82 83 83

GFSMA_sfc_rhum_144.txt.gz
RH
93 93 92 92 94 94 96 96 96 94 94 92 93 94 95 96 96 98 99 97 96 92 86 81 80 85 85 87 89 88 88 87 86 86 91 94 94 93 93 94 95 95 95
86 84 85 82 87 93 94 94 94 94 94 92 90 89 89 92 95 97 98 98 97 95 91 86 79 84 81 85 87 87 86 84 85 83 81 89 93 93 91 92 95 95 95
90 85 84 83 83 86 89 90 88 92 93 90 91 89 88 88 90 91 97 98 98 98 98 94 90 87 88 87 90 94 94 92 86 90 87 84 82 93 92 93 95 96 95
85 86 86 87 88 86 84 86 90 91 93 96 93 91 91 89 86 88 93 97 98 92 97 98 96 93 90 88 84 89 90 89 85 85 86 90 78 88 93 92 94 94 95
82 86 86 86 88 85 85 86 86 92 93 89 84 85 91 93 92 88 92 96 90 92 95 96 97 95 94 87 83 80 82 84 83 86 88 87 83 89 93 93 94 94 96
81 87 87 87 86 85 84 85 86 85 93 87 79 82 94 93 95 97 94 93 97 97 97 97 98 99 97 89 87 82 78 79 83 82 84 77 89 85 89 93 94 93 95
83 86 88 86 86 88 87 84 86 86 91 82 95 88 93 94 92 94 94 92 90 85 85 89 88 89 95 94 94 90 84 81 82 83 83 83 89 86 91 91 94 92 93
86 79 91 90 90 90 87 88 86 88 86 84 94 91 97 88 91 89 95 88 89 82 80 71 75 73 81 86 94 95 93 93 92 86 86 83 86 92 93 93 92 90 88
87 91 91 92 93 92 91 87 83 84 87 74 84 88 91 90 85 85 88 87 87 82 84 75 68 72 77 83 90 91 92 90 91 95 92 91 90 89 89 89 91 93 90
88 89 90 91 92 90 91 82 77 82 84 88 79 75 78 82 92 93 85 85 79 74 83 77 69 77 83 82 82 85 87 93 88 89 91 94 89 89 88 86 86 92 89
88 86 88 90 92 91 86 80 80 80 82 86 86 87 82 81 80 93 83 80 76 74 78 67 78 86 76 75 76 77 84 87 85 85 90 92 95 96 94 92 87 86 88
88 86 86 91 91 92 88 84 80 78 79 78 79 83 87 94 94 95 94 91 85 70 68 67 86 84 73 75 67 77 80 83 84 83 87 90 93 94 96 96 93 87 86
90 90 90 92 93 95 91 88 86 83 84 82 82 86 83 86 84 85 89 91 92 77 72 67 78 71 61 67 68 76 76 80 84 82 88 90 92 94 95 97 96 93 89
88 87 89 89 82 84 84 85 84 79 86 89 82 83 82 87 95 92 94 96 89 83 75 79 70 67 65 64 67 74 75 78 84 84 86 88 90 92 94 97 98 98 97
65 86 87 90 90 84 88 86 83 82 88 86 88 88 84 86 95 89 96 98 99 92 86 80 80 64 62 62 64 68 69 74 83 82 83 85 87 89 91 93 95 97 98
80 85 88 90 89 86 87 88 90 78 83 86 83 87 83 85 87 90 96 96 96 98 93 91 80 66 61 55 62 66 63 68 78 80 82 83 87 87 88 86 88 92 94
81 84 87 90 92 80 81 88 85 82 84 85 80 86 88 86 88 88 93 93 93 96 95 93 87 64 62 64 64 65 64 67 67 76 78 82 85 85 86 84 84 86 88
79 82 86 90 88 75 78 84 81 79 79 80 75 78 83 70 84 86 89 92 93 95 96 94 81 69 64 61 63 63 60 59 58 67 70 79 82 82 82 82 81 84 86
78 80 82 88 84 77 74 72 73 73 74 75 73 74 78 76 82 80 81 84 83 73 82 80 75 67 63 65 66 63 61 67 56 58 63 70 75 80 76 80 80 78 84
78 81 82 69 82 76 70 65 63 66 69 70 67 70 71 73 80 79 74 77 72 75 71 71 70 70 66 61 64 73 73 69 77 48 55 61 68 74 76 71 75 76 80
78 79 81 67 73 74 64 77 65 66 65 70 64 56 64 67 70 72 72 80 74 70 69 65 67 66 74 73 80 76 76 73 84 67 59 68 67 67 71 71 71 71 74
82 84 75 86 76 63 71 72 71 71 68 70 62 57 52 62 63 70 74 72 72 81 77 74 73 77 78 80 75 78 80 79 77 69 69 72 64 62 69 72 65 70 70
87 92 92 89 78 72 71 75 75 79 82 85 85 70 56 55 56 52 65 76 78 73 75 77 80 89 84 88 79 73 73 75 80 69 72 84 73 71 68 70 60 68 68
98 98 97 96 85 70 70 74 76 86 92 92 93 88 84 80 68 55 54 68 85 89 79 70 84 89 84 76 73 65 67 68 86 82 78 87 85 82 80 82 63 69 66
96 99 98 96 92 89 68 71 80 89 92 94 92 87 86 84 70 73 74 79 87 91 81 75 76 76 81 74 76 66 80 68 87 92 88 95 90 89 92 92 82 69 67
98 95 95 97 85 96 65 70 87 89 93 90 88 89 64 74 67 73 89 90 91 95 95 91 88 88 90 90 81 90 90 83 92 90 88 95 94 93 93 88 79 83 77

GFSMA_sfc_rhum_147.txt.gz
RH
83 79 80 82 87 86 86 86 77 71 71 69 68 69 66 66 68 65 73 95 97 96 91 87 83 85 84 85 91 90 89 83 87 89 92 92 93 92 93 94 94 94 94
67 63 65 67 63 62 66 69 68 71 76 73 72 68 67 66 66 68 62 68 98 97 94 89 84 82 82 81 88 92 86 84 86 87 90 91 90 90 89 92 95 95 94
67 65 60 62 61 59 64 62 64 63 61 61 63 58 56 60 59 64 62 63 70 97 97 95 93 89 84 82 88 91 87 86 86 84 87 89 89 88 87 90 91 93 95
68 64 60 62 62 59 58 56 58 57 61 62 60 55 55 56 58 61 60 60 60 70 89 97 97 96 94 90 86 86 91 94 92 93 89 88 87 87 86 87 90 87 92
70 63 62 65 66 61 62 61 60 64 61 56 51 49 55 57 62 58 64 62 63 76 89 93 96 96 95 92 88 84 83 89 92 92 87 86 84 84 90 85 90 88 89
68 62 62 67 63 61 62 63 68 62 64 62 53 55 59 61 70 77 81 77 80 80 82 79 89 91 95 97 92 86 80 79 84 87 87 86 84 84 90 90 91 90 84
70 66 60 61 61 62 66 66 64 67 62 63 61 57 55 70 68 72 68 66 64 62 69 72 76 84 88 93 94 93 91 92 86 83 84 86 86 84 89 89 90 88 88
70 65 67 64 66 62 68 68 69 63 60 62 74 71 68 51 56 62 65 70 71 60 60 63 68 68 80 90 90 89 90 90 91 90 90 92 93 90 87 89 90 93 89
70 70 69 67 67 66 66 68 68 70 64 61 72 70 80 75 67 53 61 59 68 66 69 64 70 74 76 78 82 89 87 86 86 87 90 91 91 94 90 89 90 91 92
69 71 72 70 70 66 68 65 63 66 65 70 60 58 69 77 87 76 55 54 57 57 64 62 66 73 73 74 74 82 84 85 83 85 88 89 91 92 93 92 90 90 92
69 70 72 72 71 66 70 71 69 68 64 65 67 67 66 63 76 90 90 73 55 50 53 50 64 67 64 64 63 72 80 82 83 82 87 89 90 91 92 93 94 92 89
66 72 72 72 71 69 71 71 69 70 66 66 65 70 77 88 85 88 86 79 70 56 52 52 63 57 57 55 56 74 78 83 83 85 87 89 90 92 92 92 93 93 90
66 72 72 73 72 71 70 72 68 69 67 66 69 73 73 78 82 80 82 80 80 59 56 69 60 59 54 56 58 72 74 83 83 83 84 87 88 90 92 93 94 94 94
64 69 71 71 72 69 69 71 63 63 67 68 70 71 73 80 82 81 86 87 81 60 56 81 70 66 58 57 63 68 63 82 82 82 82 86 87 88 89 91 92 93 95
59 68 69 70 70 66 68 69 64 61 65 67 69 72 73 75 79 76 79 86 95 82 62 97 78 71 59 56 60 59 61 79 80 82 83 84 86 85 86 88 89 90 91
64 68 69 67 63 64 64 65 62 59 59 61 61 68 69 72 72 74 75 79 86 86 77 92 84 80 68 48 56 57 63 69 77 79 83 83 83 83 82 84 87 88 88
64 67 69 62 56 58 59 59 58 58 61 59 61 67 72 72 72 73 76 77 78 82 83 82 87 76 64 64 56 64 67 57 59 72 80 84 80 82 81 81 84 85 86
66 68 69 61 54 52 54 55 55 55 56 54 57 57 60 53 66 66 70 80 79 78 83 85 78 73 69 52 56 78 85 47 42 62 68 78 80 75 78 76 80 81 80
64 66 64 61 56 52 49 50 53 55 56 52 54 56 57 57 57 56 57 60 59 56 65 67 67 63 53 47 47 51 71 65 31 53 56 66 74 74 72 72 72 76 80
62 62 61 62 59 52 48 48 47 50 52 51 51 54 54 56 58 56 54 57 52 54 53 55 52 50 46 41 43 47 52 70 53 32 53 50 63 70 61 69 68 71 74
62 59 60 60 59 53 47 50 46 49 49 47 45 43 52 61 68 66 54 61 57 52 50 48 50 49 52 51 52 43 48 53 68 40 44 39 46 57 53 53 62 68 72
63 60 62 57 54 50 70 69 52 46 47 44 41 41 43 50 54 71 72 70 66 66 67 59 57 58 62 59 51 45 52 51 44 36 41 44 40 49 51 43 64 65 68
66 71 64 58 57 57 70 72 66 55 55 59 61 50 43 41 44 39 61 69 69 70 68 62 68 78 74 73 62 50 49 55 54 47 44 57 51 53 55 41 61 62 63
92 92 83 74 65 62 70 74 72 69 74 72 72 71 71 66 58 40 42 58 79 78 71 61 72 79 76 67 55 44 40 51 64 63 62 69 75 74 70 65 60 62 63
92 93 86 80 80 78 71 75 71 77 87 85 79 74 70 74 69 66 61 70 76 84 76 74 75 75 78 75 71 47 55 47 72 77 85 83 82 84 82 81 72 60 61
91 84 90 86 75 79 67 71 75 73 82 80 79 74 64 71 68 70 78 75 80 85 81 79 80 80 79 79 79 81 75 66 76 78 81 86 82 82 82 78 72 68 66